Time,TemperatureF,DewpointF,PressureIn,WindDirection,WindDirectionDegrees,WindSpeedMPH,WindSpeedGustMPH,Humidity,HourlyPrecipIn,Conditions,Clouds,dailyrainin,SoftwareType,DateUTC
2013-08-06 00:04:00,78.2,78.2,29.99,North,359,0.0,0.0,100,0.00,,SKC,0.02,VWS V14.01,2013-08-06 04:04:00,
2013-08-06 00:05:00,78.3,78.2,29.99,North,359,0.0,0.0,100,0.00,,SKC,0.02,VWS V14.01,2013-08-06 04:05:00,
2013-08-06 00:09:00,78.5,78.5,29.99,North,359,0.0,0.0,100,0.00,,SKC,0.02,VWS V14.01,2013-08-06 04:09:00,
2013-08-06 00:10:00,78.5,78.5,29.99,North,359,0.0,0.0,100,0.00,,SKC,0.02,VWS V14.01,2013-08-06 04:10:00,
2013-08-06 00:14:00,78.9,78.9,29.99,North,359,0.0,0.0,100,0.00,,SKC,0.02,VWS V14.01,2013-08-06 04:14:00,
2013-08-06 00:15:00,78.9,78.9,29.99,North,359,0.0,0.0,100,0.00,,SKC,0.02,VWS V14.01,2013-08-06 04:15:00,
2013-08-06 00:19:00,79.3,79.3,29.98,North,359,0.0,0.0,100,0.00,,SKC,0.02,VWS V14.01,2013-08-06 04:19:00,
2013-08-06 00:20:00,79.4,79.4,29.98,North,359,0.0,0.0,100,0.00,,SKC,0.02,VWS V14.01,2013-08-06 04:20:00,
2013-08-06 00:24:00,79.9,79.9,29.98,North,359,0.0,0.0,100,0.00,,SKC,0.02,VWS V14.01,2013-08-06 04:24:00,
2013-08-06 00:25:00,80.0,80.0,29.98,North,359,0.0,0.0,100,0.00,,SKC,0.02,VWS V14.01,2013-08-06 04:25:00,
2013-08-06 00:26:00,80.1,80.1,29.98,North,359,0.0,0.0,100,0.00,,SKC,0.02,VWS V14.01,2013-08-06 04:26:00,
2013-08-06 00:29:00,80.4,80.4,29.98,North,359,0.0,0.0,100,0.00,,SKC,0.02,VWS V14.01,2013-08-06 04:29:00,
2013-08-06 00:30:00,80.5,80.5,29.98,North,359,0.0,0.0,100,0.00,,SKC,0.02,VWS V14.01,2013-08-06 04:30:00,
2013-08-06 00:31:00,80.4,80.4,29.98,North,359,0.0,0.0,100,0.00,,SKC,0.02,VWS V14.01,2013-08-06 04:31:00,
2013-08-06 00:34:00,80.9,80.9,29.97,North,359,0.0,0.0,100,0.00,,SKC,0.02,VWS V14.01,2013-08-06 04:34:00,
2013-08-06 00:35:00,80.9,80.9,29.98,North,359,0.0,0.0,100,0.00,,SKC,0.02,VWS V14.01,2013-08-06 04:35:00,
2013-08-06 00:36:00,81.0,81.0,29.98,North,359,0.0,0.0,100,0.00,,SKC,0.02,VWS V14.01,2013-08-06 04:36:00,
2013-08-06 00:39:00,81.3,81.3,29.97,North,359,0.0,0.0,100,0.00,,SKC,0.02,VWS V14.01,2013-08-06 04:39:00,
2013-08-06 00:40:00,81.3,81.3,29.97,North,359,0.0,0.0,100,0.00,,SKC,0.02,VWS V14.01,2013-08-06 04:40:00,
2013-08-06 00:41:00,81.3,81.3,29.97,North,359,0.0,0.0,100,0.00,,SKC,0.02,VWS V14.01,2013-08-06 04:41:00,
2013-08-06 00:45:00,81.4,81.4,29.97,North,359,0.0,0.0,100,0.00,,SKC,0.02,VWS V14.01,2013-08-06 04:45:00,
2013-08-06 00:46:00,81.5,81.5,29.97,North,359,0.0,0.0,100,0.00,,SKC,0.02,VWS V14.01,2013-08-06 04:46:00,
2013-08-06 00:50:00,81.5,81.5,29.97,North,359,0.0,0.0,100,0.00,,SKC,0.02,VWS V14.01,2013-08-06 04:50:00,
2013-08-06 00:51:00,81.6,81.6,29.97,North,359,0.0,0.0,100,0.00,,SKC,0.02,VWS V14.01,2013-08-06 04:51:00,
2013-08-06 00:52:00,81.6,81.6,29.97,North,359,0.0,0.0,100,0.00,,SKC,0.02,VWS V14.01,2013-08-06 04:52:00,
2013-08-06 00:55:00,81.7,81.7,29.97,North,359,0.0,0.0,100,0.00,,SKC,0.02,VWS V14.01,2013-08-06 04:55:00,
2013-08-06 00:56:00,81.8,81.9,29.97,North,359,0.0,0.0,100,0.00,,SKC,0.02,VWS V14.01,2013-08-06 04:56:00,
2013-08-06 00:57:00,81.8,81.8,29.97,North,359,0.0,0.0,100,0.00,,SKC,0.02,VWS V14.01,2013-08-06 04:57:00,
2013-08-06 01:00:00,81.8,81.8,29.97,North,359,0.0,0.0,100,0.00,,SKC,0.02,VWS V14.01,2013-08-06 05:00:00,
2013-08-06 01:01:00,81.9,81.8,29.97,North,359,0.0,0.0,100,0.00,,SKC,0.02,VWS V14.01,2013-08-06 05:01:00,
2013-08-06 01:02:00,81.8,81.8,29.97,North,359,0.0,0.0,100,0.00,,SKC,0.02,VWS V14.01,2013-08-06 05:02:00,
2013-08-06 01:03:00,82.6,82.6,29.95,SSW,205,0.0,2.9,100,0.00,,SKC,0.00,VWS V14.01,2013-08-06 05:03:00,
2013-08-06 01:04:00,82.7,82.7,29.95,SSW,205,0.0,2.9,100,0.00,,SKC,0.00,VWS V14.01,2013-08-06 05:04:00,
2013-08-06 01:05:00,82.0,82.0,29.97,North,359,0.0,0.0,100,0.00,,SKC,0.02,VWS V14.01,2013-08-06 05:05:00,
2013-08-06 01:06:00,82.1,82.1,29.97,North,359,0.0,0.0,100,0.00,,SKC,0.02,VWS V14.01,2013-08-06 05:06:00,
2013-08-06 01:07:00,82.1,82.1,29.97,North,359,1.1,1.1,100,0.00,,SKC,0.02,VWS V14.01,2013-08-06 05:07:00,
2013-08-06 01:10:00,82.2,82.2,29.97,North,359,0.0,0.0,100,0.00,,SKC,0.02,VWS V14.01,2013-08-06 05:10:00,
2013-08-06 01:11:00,82.2,82.2,29.97,North,359,0.0,0.0,100,0.00,,SKC,0.02,VWS V14.01,2013-08-06 05:11:00,
2013-08-06 01:12:00,82.2,82.2,29.97,North,359,0.0,0.0,100,0.00,,SKC,0.02,VWS V14.01,2013-08-06 05:12:00,
2013-08-06 01:15:00,82.3,82.3,29.97,North,359,0.0,0.0,100,0.00,,SKC,0.02,VWS V14.01,2013-08-06 05:15:00,
2013-08-06 01:16:00,82.4,82.4,29.97,North,359,0.0,0.0,100,0.00,,SKC,0.02,VWS V14.01,2013-08-06 05:16:00,
2013-08-06 01:17:00,82.3,82.3,29.97,North,359,0.0,0.0,100,0.00,,SKC,0.02,VWS V14.01,2013-08-06 05:17:00,
2013-08-06 01:20:00,82.4,82.4,29.97,North,359,0.0,0.0,100,0.00,,SKC,0.02,VWS V14.01,2013-08-06 05:20:00,
2013-08-06 01:21:00,82.4,82.4,29.97,North,359,0.0,0.0,100,0.00,,SKC,0.02,VWS V14.01,2013-08-06 05:21:00,
2013-08-06 01:22:00,82.4,82.4,29.97,North,359,0.0,0.0,100,0.00,,SKC,0.02,VWS V14.01,2013-08-06 05:22:00,
2013-08-06 01:25:00,82.4,82.4,29.97,North,359,0.0,0.0,100,0.00,,SKC,0.02,VWS V14.01,2013-08-06 05:25:00,
2013-08-06 01:26:00,82.4,82.4,29.97,North,359,0.0,0.0,100,0.00,,SKC,0.02,VWS V14.01,2013-08-06 05:26:00,
2013-08-06 01:27:00,82.4,82.4,29.97,North,359,0.0,0.0,100,0.00,,SKC,0.02,VWS V14.01,2013-08-06 05:27:00,
2013-08-06 01:28:00,82.4,82.4,29.97,North,359,0.0,0.0,100,0.00,,SKC,0.02,VWS V14.01,2013-08-06 05:28:00,
2013-08-06 01:30:00,82.4,82.4,29.97,North,359,0.0,0.0,100,0.00,,SKC,0.02,VWS V14.01,2013-08-06 05:30:00,
2013-08-06 01:31:00,82.4,82.4,29.96,North,359,0.0,0.0,100,0.00,,SKC,0.02,VWS V14.01,2013-08-06 05:31:00,
2013-08-06 01:32:00,82.4,82.4,29.96,North,359,0.0,0.0,100,0.00,,SKC,0.02,VWS V14.01,2013-08-06 05:32:00,
2013-08-06 01:33:00,82.4,82.4,29.96,North,359,0.0,0.0,100,0.00,,SKC,0.02,VWS V14.01,2013-08-06 05:33:00,
2013-08-06 01:35:00,82.4,82.4,29.96,North,359,0.0,0.0,100,0.00,,SKC,0.02,VWS V14.01,2013-08-06 05:35:00,
2013-08-06 01:36:00,82.5,82.5,29.96,North,359,0.0,0.0,100,0.00,,SKC,0.02,VWS V14.01,2013-08-06 05:36:00,
2013-08-06 01:37:00,82.4,82.4,29.96,North,359,0.0,0.0,100,0.00,,SKC,0.02,VWS V14.01,2013-08-06 05:37:00,
2013-08-06 01:38:00,82.4,82.4,29.96,North,359,0.0,0.0,100,0.00,,SKC,0.02,VWS V14.01,2013-08-06 05:38:00,
2013-08-06 01:40:00,82.4,82.4,29.96,North,359,0.0,0.0,100,0.00,,SKC,0.02,VWS V14.01,2013-08-06 05:40:00,
2013-08-06 01:41:00,82.4,82.4,29.96,North,359,0.0,0.0,100,0.00,,SKC,0.02,VWS V14.01,2013-08-06 05:41:00,
2013-08-06 01:42:00,82.4,82.4,29.96,North,359,0.0,0.0,100,0.00,,SKC,0.02,VWS V14.01,2013-08-06 05:42:00,
2013-08-06 01:43:00,82.5,82.5,29.96,North,359,0.0,0.0,100,0.00,,SKC,0.02,VWS V14.01,2013-08-06 05:43:00,
2013-08-06 01:45:00,82.5,82.5,29.96,North,359,0.0,0.0,100,0.00,,SKC,0.02,VWS V14.01,2013-08-06 05:45:00,
2013-08-06 01:46:00,82.6,82.6,29.96,North,359,0.0,0.0,100,0.00,,SKC,0.02,VWS V14.01,2013-08-06 05:46:00,
2013-08-06 01:48:00,82.7,82.7,29.96,North,359,0.0,0.0,100,0.00,,SKC,0.02,VWS V14.01,2013-08-06 05:48:00,
2013-08-06 01:51:00,82.7,82.7,29.95,North,359,0.0,0.2,100,0.00,,SKC,0.02,VWS V14.01,2013-08-06 05:51:00,
2013-08-06 01:53:00,82.6,82.6,29.95,North,359,0.0,0.0,100,0.00,,SKC,0.02,VWS V14.01,2013-08-06 05:53:00,
2013-08-06 01:58:00,82.7,82.7,29.95,SSW,205,0.0,2.9,100,0.00,,SKC,0.00,VWS V14.01,2013-08-06 05:58:00,
2013-08-06 01:59:00,82.7,82.7,29.95,SSW,205,7.5,7.5,100,0.00,,SKC,0.00,VWS V14.01,2013-08-06 05:59:00,
2013-08-06 02:03:00,82.8,82.8,29.95,SSW,205,0.0,7.5,100,0.00,,SKC,0.00,VWS V14.01,2013-08-06 06:03:00,
2013-08-06 02:04:00,82.7,82.7,29.95,SSW,205,0.0,7.5,100,0.00,,SKC,0.00,VWS V14.01,2013-08-06 06:04:00,
2013-08-06 02:08:00,82.9,82.9,29.95,SSW,205,0.0,7.5,100,0.00,,SKC,0.00,VWS V14.01,2013-08-06 06:08:00,
2013-08-06 02:09:00,82.9,82.9,29.95,SSW,205,0.0,7.5,100,0.00,,SKC,0.00,VWS V14.01,2013-08-06 06:09:00,
2013-08-06 02:13:00,82.9,82.9,29.95,North,359,0.0,7.5,100,0.00,,SKC,0.00,VWS V14.01,2013-08-06 06:13:00,
2013-08-06 02:14:00,82.8,82.8,29.95,North,359,0.0,7.5,100,0.00,,SKC,0.00,VWS V14.01,2013-08-06 06:14:00,
2013-08-06 02:18:00,83.0,83.0,29.95,North,359,0.0,7.5,100,0.00,,SKC,0.00,VWS V14.01,2013-08-06 06:18:00,
2013-08-06 02:19:00,83.0,83.0,29.95,North,359,0.3,7.5,100,0.00,,SKC,0.00,VWS V14.01,2013-08-06 06:19:00,
2013-08-06 02:20:00,82.9,82.9,29.95,North,359,0.0,7.5,100,0.00,,SKC,0.00,VWS V14.01,2013-08-06 06:20:00,
2013-08-06 02:24:00,83.0,83.0,29.95,North,359,0.0,7.5,100,0.00,,SKC,0.00,VWS V14.01,2013-08-06 06:24:00,
2013-08-06 02:25:00,82.9,82.9,29.95,North,359,0.0,7.5,100,0.00,,SKC,0.00,VWS V14.01,2013-08-06 06:25:00,
2013-08-06 02:29:00,83.1,83.1,29.95,North,359,0.0,7.5,100,0.00,,SKC,0.00,VWS V14.01,2013-08-06 06:29:00,
2013-08-06 02:30:00,83.2,83.2,29.95,North,359,0.0,7.5,100,0.00,,SKC,0.00,VWS V14.01,2013-08-06 06:30:00,
2013-08-06 02:34:00,83.2,83.2,29.95,North,359,0.0,7.5,100,0.00,,SKC,0.00,VWS V14.01,2013-08-06 06:34:00,
2013-08-06 02:35:00,83.1,83.1,29.95,North,359,0.0,7.5,100,0.00,,SKC,0.00,VWS V14.01,2013-08-06 06:35:00,
2013-08-06 02:39:00,83.2,83.2,29.95,North,359,0.0,7.5,100,0.00,,SKC,0.00,VWS V14.01,2013-08-06 06:39:00,
2013-08-06 02:40:00,83.2,83.2,29.95,North,359,0.0,7.5,100,0.00,,SKC,0.00,VWS V14.01,2013-08-06 06:40:00,
2013-08-06 02:41:00,83.2,83.2,29.95,North,359,0.0,7.5,100,0.00,,SKC,0.00,VWS V14.01,2013-08-06 06:41:00,
2013-08-06 02:44:00,83.2,83.2,29.95,North,359,0.0,7.5,100,0.00,,SKC,0.00,VWS V14.01,2013-08-06 06:44:00,
2013-08-06 02:46:00,83.2,83.2,29.95,North,359,0.0,7.5,100,0.00,,SKC,0.00,VWS V14.01,2013-08-06 06:46:00,
2013-08-06 02:49:00,83.2,83.2,29.95,North,359,0.0,7.5,100,0.00,,SKC,0.00,VWS V14.01,2013-08-06 06:49:00,
2013-08-06 02:51:00,83.3,83.3,29.95,North,359,0.0,7.5,100,0.00,,SKC,0.00,VWS V14.01,2013-08-06 06:51:00,
2013-08-06 02:54:00,83.2,83.2,29.95,North,359,0.0,7.5,100,0.00,,SKC,0.00,VWS V14.01,2013-08-06 06:54:00,
2013-08-06 02:56:00,83.3,83.2,29.95,North,359,0.0,7.5,100,0.00,,SKC,0.00,VWS V14.01,2013-08-06 06:56:00,
2013-08-06 02:59:00,83.2,83.2,29.95,North,359,0.0,7.5,100,0.00,,SKC,0.00,VWS V14.01,2013-08-06 06:59:00,
2013-08-06 03:00:00,83.2,83.2,29.95,North,359,0.0,7.5,100,0.00,,SKC,0.00,VWS V14.01,2013-08-06 07:00:00,
2013-08-06 03:01:00,83.3,83.3,29.95,North,359,0.0,7.5,100,0.00,,SKC,0.00,VWS V14.01,2013-08-06 07:01:00,
2013-08-06 03:04:00,83.3,83.3,29.95,North,359,0.0,7.5,100,0.00,,SKC,0.00,VWS V14.01,2013-08-06 07:04:00,
2013-08-06 03:05:00,83.3,83.3,29.95,North,359,0.0,7.5,100,0.00,,SKC,0.00,VWS V14.01,2013-08-06 07:05:00,
2013-08-06 03:06:00,83.2,83.2,29.95,North,359,0.0,7.5,100,0.00,,SKC,0.00,VWS V14.01,2013-08-06 07:06:00,
2013-08-06 03:09:00,83.2,83.2,29.94,North,359,0.0,7.5,100,0.00,,SKC,0.00,VWS V14.01,2013-08-06 07:09:00,
2013-08-06 03:10:00,83.1,83.1,29.94,North,359,0.0,7.5,100,0.00,,SKC,0.00,VWS V14.01,2013-08-06 07:10:00,
2013-08-06 03:11:00,83.1,83.1,29.94,North,359,0.0,7.5,100,0.00,,SKC,0.00,VWS V14.01,2013-08-06 07:11:00,
2013-08-06 03:12:00,83.2,83.1,29.94,North,359,0.0,7.5,100,0.00,,SKC,0.00,VWS V14.01,2013-08-06 07:12:00,
2013-08-06 03:15:00,83.2,83.2,29.94,North,359,0.0,7.5,100,0.00,,SKC,0.00,VWS V14.01,2013-08-06 07:15:00,
2013-08-06 03:16:00,83.2,83.2,29.94,North,359,0.0,7.5,100,0.00,,SKC,0.00,VWS V14.01,2013-08-06 07:16:00,
2013-08-06 03:17:00,83.2,83.2,29.94,North,359,0.0,7.5,100,0.00,,SKC,0.00,VWS V14.01,2013-08-06 07:17:00,
2013-08-06 03:20:00,83.2,83.2,29.94,North,359,0.0,7.5,100,0.00,,SKC,0.00,VWS V14.01,2013-08-06 07:20:00,
2013-08-06 03:21:00,83.3,83.3,29.94,North,359,0.0,7.5,100,0.00,,SKC,0.00,VWS V14.01,2013-08-06 07:21:00,
2013-08-06 03:22:00,83.3,83.3,29.94,North,359,0.0,7.5,100,0.00,,SKC,0.00,VWS V14.01,2013-08-06 07:22:00,
2013-08-06 03:25:00,83.3,83.3,29.94,North,359,0.0,7.5,100,0.00,,SKC,0.00,VWS V14.01,2013-08-06 07:25:00,
2013-08-06 03:26:00,83.3,83.3,29.93,North,359,0.0,7.5,100,0.00,,SKC,0.00,VWS V14.01,2013-08-06 07:26:00,
2013-08-06 03:27:00,83.3,83.3,29.93,North,359,0.0,7.5,100,0.00,,SKC,0.00,VWS V14.01,2013-08-06 07:27:00,
2013-08-06 03:30:00,83.3,83.3,29.93,North,359,0.0,7.5,100,0.00,,SKC,0.00,VWS V14.01,2013-08-06 07:30:00,
2013-08-06 03:31:00,83.2,83.2,29.93,North,359,0.0,7.5,100,0.00,,SKC,0.00,VWS V14.01,2013-08-06 07:31:00,
2013-08-06 03:32:00,83.3,83.3,29.93,North,359,0.0,7.5,100,0.00,,SKC,0.00,VWS V14.01,2013-08-06 07:32:00,
2013-08-06 03:35:00,83.3,83.3,29.93,North,359,0.0,7.5,100,0.00,,SKC,0.00,VWS V14.01,2013-08-06 07:35:00,
2013-08-06 03:36:00,83.3,83.3,29.93,North,359,0.0,7.5,100,0.00,,SKC,0.00,VWS V14.01,2013-08-06 07:36:00,
2013-08-06 03:37:00,83.2,83.2,29.94,North,359,0.0,7.5,100,0.00,,SKC,0.00,VWS V14.01,2013-08-06 07:37:00,
2013-08-06 03:38:00,83.3,83.3,29.93,North,359,0.0,7.5,100,0.00,,SKC,0.00,VWS V14.01,2013-08-06 07:38:00,
2013-08-06 03:40:00,83.2,83.2,29.93,North,359,0.0,7.5,100,0.00,,SKC,0.00,VWS V14.01,2013-08-06 07:40:00,
2013-08-06 03:41:00,83.3,83.3,29.93,North,359,0.0,7.5,100,0.00,,SKC,0.00,VWS V14.01,2013-08-06 07:41:00,
2013-08-06 03:42:00,83.3,83.3,29.93,North,359,0.0,7.5,100,0.00,,SKC,0.00,VWS V14.01,2013-08-06 07:42:00,
2013-08-06 03:43:00,83.3,83.3,29.93,North,359,0.0,7.5,100,0.00,,SKC,0.00,VWS V14.01,2013-08-06 07:43:00,
2013-08-06 03:45:00,83.2,83.2,29.93,North,359,0.0,7.5,100,0.00,,SKC,0.00,VWS V14.01,2013-08-06 07:45:00,
2013-08-06 03:46:00,83.2,83.2,29.93,North,359,0.0,7.5,100,0.00,,SKC,0.00,VWS V14.01,2013-08-06 07:46:00,
2013-08-06 03:47:00,83.3,83.3,29.93,North,359,0.0,7.5,100,0.00,,SKC,0.00,VWS V14.01,2013-08-06 07:47:00,
2013-08-06 03:48:00,83.2,83.2,29.93,North,359,0.0,7.5,100,0.00,,SKC,0.00,VWS V14.01,2013-08-06 07:48:00,
2013-08-06 03:50:00,83.2,83.2,29.93,North,359,0.0,7.5,100,0.00,,SKC,0.00,VWS V14.01,2013-08-06 07:50:00,
2013-08-06 03:51:00,83.2,83.2,29.93,North,359,0.0,7.5,100,0.00,,SKC,0.00,VWS V14.01,2013-08-06 07:51:00,
2013-08-06 03:52:00,83.2,83.1,29.93,North,359,0.0,7.5,100,0.00,,SKC,0.00,VWS V14.01,2013-08-06 07:52:00,
2013-08-06 03:53:00,83.1,83.1,29.93,North,359,0.0,7.5,100,0.00,,SKC,0.00,VWS V14.01,2013-08-06 07:53:00,
2013-08-06 03:55:00,83.0,83.0,29.93,North,359,0.0,7.5,100,0.00,,SKC,0.00,VWS V14.01,2013-08-06 07:55:00,
2013-08-06 03:56:00,83.0,83.0,29.93,North,359,0.0,7.5,100,0.00,,SKC,0.00,VWS V14.01,2013-08-06 07:56:00,
2013-08-06 03:57:00,82.9,82.9,29.93,North,359,0.0,7.5,100,0.00,,SKC,0.00,VWS V14.01,2013-08-06 07:57:00,
2013-08-06 03:58:00,82.9,82.9,29.93,North,359,0.0,7.5,100,0.00,,SKC,0.00,VWS V14.01,2013-08-06 07:58:00,
2013-08-06 04:00:00,82.7,82.7,29.93,North,359,0.0,7.5,100,0.00,,SKC,0.00,VWS V14.01,2013-08-06 08:00:00,
2013-08-06 04:01:00,82.7,82.7,29.93,North,359,0.0,7.5,100,0.00,,SKC,0.00,VWS V14.01,2013-08-06 08:01:00,
2013-08-06 04:02:00,82.7,82.7,29.93,North,359,0.0,7.5,100,0.00,,SKC,0.00,VWS V14.01,2013-08-06 08:02:00,
2013-08-06 04:03:00,82.6,82.6,29.93,North,359,0.0,7.5,100,0.00,,SKC,0.00,VWS V14.01,2013-08-06 08:03:00,
2013-08-06 04:06:00,82.4,82.4,29.93,North,359,0.0,7.5,100,0.00,,SKC,0.00,VWS V14.01,2013-08-06 08:06:00,
2013-08-06 04:07:00,82.4,82.4,29.93,North,359,0.0,7.5,100,0.00,,SKC,0.00,VWS V14.01,2013-08-06 08:07:00,
2013-08-06 04:08:00,82.4,82.4,29.93,North,359,0.0,7.5,100,0.00,,SKC,0.00,VWS V14.01,2013-08-06 08:08:00,
2013-08-06 04:11:00,82.2,82.2,29.93,North,359,0.0,7.5,100,0.00,,SKC,0.00,VWS V14.01,2013-08-06 08:11:00,
2013-08-06 04:12:00,82.2,82.2,29.93,North,359,0.0,7.5,100,0.00,,SKC,0.00,VWS V14.01,2013-08-06 08:12:00,
2013-08-06 04:13:00,82.2,82.2,29.93,North,359,0.0,7.5,100,0.00,,SKC,0.00,VWS V14.01,2013-08-06 08:13:00,
2013-08-06 04:16:00,81.9,81.8,29.93,North,359,0.0,7.5,100,0.00,,SKC,0.00,VWS V14.01,2013-08-06 08:16:00,
2013-08-06 04:17:00,81.7,81.7,29.93,North,359,0.0,7.5,100,0.00,,SKC,0.00,VWS V14.01,2013-08-06 08:17:00,
2013-08-06 04:18:00,81.6,81.6,29.93,North,359,0.0,7.5,100,0.00,,SKC,0.00,VWS V14.01,2013-08-06 08:18:00,
2013-08-06 04:19:00,81.6,81.6,29.93,North,359,0.0,7.5,100,0.00,,SKC,0.00,VWS V14.01,2013-08-06 08:19:00,
2013-08-06 04:21:00,81.4,81.4,29.93,North,359,0.0,7.5,100,0.00,,SKC,0.00,VWS V14.01,2013-08-06 08:21:00,
2013-08-06 04:22:00,81.3,81.3,29.93,North,359,0.0,7.5,100,0.00,,SKC,0.00,VWS V14.01,2013-08-06 08:22:00,
2013-08-06 04:23:00,81.2,81.2,29.93,North,359,0.0,7.5,100,0.00,,SKC,0.00,VWS V14.01,2013-08-06 08:23:00,
2013-08-06 04:24:00,81.1,81.1,29.93,North,359,0.0,7.5,100,0.00,,SKC,0.00,VWS V14.01,2013-08-06 08:24:00,
2013-08-06 04:26:00,81.0,81.0,29.93,North,359,0.0,7.5,100,0.00,,SKC,0.00,VWS V14.01,2013-08-06 08:26:00,
2013-08-06 04:27:00,80.9,80.9,29.93,North,359,0.0,7.5,100,0.00,,SKC,0.00,VWS V14.01,2013-08-06 08:27:00,
2013-08-06 04:29:00,80.7,80.7,29.93,North,359,0.0,7.5,100,0.00,,SKC,0.00,VWS V14.01,2013-08-06 08:29:00,
2013-08-06 04:31:00,80.6,80.6,29.93,North,359,0.0,7.5,100,0.00,,SKC,0.00,VWS V14.01,2013-08-06 08:31:00,
2013-08-06 04:32:00,80.5,80.5,29.93,North,359,0.0,7.5,100,0.00,,SKC,0.00,VWS V14.01,2013-08-06 08:32:00,
2013-08-06 04:34:00,80.4,80.4,29.94,North,359,0.0,7.5,100,0.00,,SKC,0.00,VWS V14.01,2013-08-06 08:34:00,
2013-08-06 04:35:00,80.3,80.3,29.94,North,359,0.0,7.5,100,0.00,,SKC,0.00,VWS V14.01,2013-08-06 08:35:00,
2013-08-06 04:36:00,80.3,80.4,29.94,North,359,0.0,7.5,100,0.00,,SKC,0.00,VWS V14.01,2013-08-06 08:36:00,
2013-08-06 04:38:00,80.5,80.5,29.94,North,359,0.0,7.5,100,0.00,,SKC,0.00,VWS V14.01,2013-08-06 08:38:00,
2013-08-06 04:39:00,80.4,80.4,29.94,North,359,0.0,7.5,100,0.00,,SKC,0.00,VWS V14.01,2013-08-06 08:39:00,
2013-08-06 04:40:00,80.4,80.3,29.94,North,359,0.0,7.5,100,0.00,,SKC,0.00,VWS V14.01,2013-08-06 08:40:00,
2013-08-06 04:41:00,80.3,80.3,29.94,North,359,0.0,7.5,100,0.00,,SKC,0.00,VWS V14.01,2013-08-06 08:41:00,
2013-08-06 04:43:00,80.3,80.2,29.94,North,359,0.0,7.5,100,0.00,,SKC,0.00,VWS V14.01,2013-08-06 08:43:00,
2013-08-06 04:44:00,80.2,80.2,29.94,North,359,0.0,7.5,100,0.00,,SKC,0.00,VWS V14.01,2013-08-06 08:44:00,
2013-08-06 04:45:00,80.2,80.2,29.94,North,359,0.0,7.5,100,0.00,,SKC,0.00,VWS V14.01,2013-08-06 08:45:00,
2013-08-06 04:46:00,80.2,80.2,29.94,North,359,0.0,7.5,100,0.00,,SKC,0.00,VWS V14.01,2013-08-06 08:46:00,
2013-08-06 04:48:00,80.0,80.0,29.94,North,359,0.0,7.5,100,0.00,,SKC,0.00,VWS V14.01,2013-08-06 08:48:00,
2013-08-06 04:49:00,80.0,80.0,29.94,North,359,0.0,7.5,100,0.00,,SKC,0.00,VWS V14.01,2013-08-06 08:49:00,
2013-08-06 04:50:00,80.0,80.0,29.94,North,359,0.0,7.5,100,0.00,,SKC,0.00,VWS V14.01,2013-08-06 08:50:00,
2013-08-06 04:51:00,79.9,79.9,29.94,North,359,0.0,7.5,100,0.00,,SKC,0.00,VWS V14.01,2013-08-06 08:51:00,
2013-08-06 04:53:00,79.9,79.9,29.94,North,359,0.0,7.5,100,0.00,,SKC,0.00,VWS V14.01,2013-08-06 08:53:00,
2013-08-06 04:54:00,79.8,79.8,29.94,North,359,0.0,7.5,100,0.00,,SKC,0.00,VWS V14.01,2013-08-06 08:54:00,
2013-08-06 04:55:00,79.8,79.8,29.94,North,359,0.0,7.5,100,0.00,,SKC,0.00,VWS V14.01,2013-08-06 08:55:00,
2013-08-06 04:57:00,79.8,79.8,29.94,North,359,0.0,7.5,100,0.00,,SKC,0.00,VWS V14.01,2013-08-06 08:57:00,
2013-08-06 04:58:00,79.7,79.7,29.94,North,359,0.0,7.5,100,0.00,,SKC,0.00,VWS V14.01,2013-08-06 08:58:00,
2013-08-06 04:59:00,79.7,79.7,29.94,North,359,0.0,7.5,100,0.00,,SKC,0.00,VWS V14.01,2013-08-06 08:59:00,
2013-08-06 05:00:00,79.7,79.7,29.94,North,359,0.0,7.5,100,0.00,,SKC,0.00,VWS V14.01,2013-08-06 09:00:00,
2013-08-06 05:01:00,79.5,79.5,29.94,North,359,0.0,7.5,100,0.00,,SKC,0.00,VWS V14.01,2013-08-06 09:01:00,
2013-08-06 05:02:00,79.4,79.4,29.94,North,359,0.0,7.5,100,0.00,,SKC,0.00,VWS V14.01,2013-08-06 09:02:00,
2013-08-06 05:03:00,79.4,79.4,29.94,North,359,0.0,7.5,100,0.00,,SKC,0.00,VWS V14.01,2013-08-06 09:03:00,
2013-08-06 05:04:00,79.3,79.3,29.94,North,359,0.0,7.5,100,0.00,,SKC,0.00,VWS V14.01,2013-08-06 09:04:00,
2013-08-06 05:05:00,79.4,79.4,29.94,North,359,0.0,7.5,100,0.00,,SKC,0.00,VWS V14.01,2013-08-06 09:05:00,
2013-08-06 05:06:00,79.3,79.3,29.94,North,359,0.0,7.5,100,0.00,,SKC,0.00,VWS V14.01,2013-08-06 09:06:00,
2013-08-06 05:07:00,79.3,79.3,29.94,North,359,0.0,7.5,100,0.00,,SKC,0.00,VWS V14.01,2013-08-06 09:07:00,
2013-08-06 05:08:00,79.2,79.2,29.94,North,359,0.0,7.5,100,0.00,,SKC,0.00,VWS V14.01,2013-08-06 09:08:00,
2013-08-06 05:09:00,79.2,79.2,29.94,North,359,0.0,7.5,100,0.00,,SKC,0.00,VWS V14.01,2013-08-06 09:09:00,
2013-08-06 05:10:00,79.2,79.2,29.94,North,359,0.0,7.5,100,0.00,,SKC,0.00,VWS V14.01,2013-08-06 09:10:00,
2013-08-06 05:11:00,79.1,79.1,29.94,North,359,0.0,7.5,100,0.00,,SKC,0.00,VWS V14.01,2013-08-06 09:11:00,
2013-08-06 05:12:00,79.2,79.2,29.94,North,359,0.0,7.5,100,0.00,,SKC,0.00,VWS V14.01,2013-08-06 09:12:00,
2013-08-06 05:13:00,79.1,79.1,29.94,North,359,0.0,7.5,100,0.00,,SKC,0.00,VWS V14.01,2013-08-06 09:13:00,
2013-08-06 05:14:00,79.1,79.1,29.95,North,359,0.0,7.5,100,0.00,,SKC,0.00,VWS V14.01,2013-08-06 09:14:00,
2013-08-06 05:15:00,79.1,79.1,29.94,North,359,0.0,7.5,100,0.00,,SKC,0.00,VWS V14.01,2013-08-06 09:15:00,
2013-08-06 05:16:00,79.1,79.1,29.94,North,359,0.0,7.5,100,0.00,,SKC,0.00,VWS V14.01,2013-08-06 09:16:00,
2013-08-06 05:17:00,79.0,79.0,29.94,North,359,0.0,7.5,100,0.00,,SKC,0.00,VWS V14.01,2013-08-06 09:17:00,
2013-08-06 05:19:00,79.0,79.0,29.94,North,359,0.0,7.5,100,0.00,,SKC,0.00,VWS V14.01,2013-08-06 09:19:00,
2013-08-06 05:20:00,79.0,79.0,29.94,North,359,0.0,7.5,100,0.00,,SKC,0.00,VWS V14.01,2013-08-06 09:20:00,
2013-08-06 05:21:00,79.0,79.0,29.94,North,359,0.0,7.5,100,0.00,,SKC,0.00,VWS V14.01,2013-08-06 09:21:00,
2013-08-06 05:22:00,79.0,79.0,29.95,North,359,0.0,7.5,100,0.00,,SKC,0.00,VWS V14.01,2013-08-06 09:22:00,
2013-08-06 05:24:00,79.0,79.0,29.94,North,359,0.0,7.5,100,0.00,,SKC,0.00,VWS V14.01,2013-08-06 09:24:00,
2013-08-06 05:25:00,79.0,78.9,29.94,North,359,0.0,7.5,100,0.00,,SKC,0.00,VWS V14.01,2013-08-06 09:25:00,
2013-08-06 05:26:00,78.9,78.9,29.95,North,359,0.0,7.5,100,0.00,,SKC,0.00,VWS V14.01,2013-08-06 09:26:00,
2013-08-06 05:27:00,78.9,78.9,29.94,North,359,0.0,7.5,100,0.00,,SKC,0.00,VWS V14.01,2013-08-06 09:27:00,
2013-08-06 05:29:00,78.8,78.8,29.95,North,359,0.0,7.5,100,0.00,,SKC,0.00,VWS V14.01,2013-08-06 09:29:00,
2013-08-06 05:30:00,78.8,78.8,29.95,North,359,0.0,7.5,100,0.00,,SKC,0.00,VWS V14.01,2013-08-06 09:30:00,
2013-08-06 05:31:00,78.8,78.8,29.95,North,359,0.0,7.5,100,0.00,,SKC,0.00,VWS V14.01,2013-08-06 09:31:00,
2013-08-06 05:33:00,78.8,78.8,29.95,North,359,0.0,7.5,100,0.00,,SKC,0.00,VWS V14.01,2013-08-06 09:33:00,
2013-08-06 05:34:00,78.8,78.8,29.95,North,359,0.0,7.5,100,0.00,,SKC,0.00,VWS V14.01,2013-08-06 09:34:00,
2013-08-06 05:35:00,78.8,78.8,29.95,North,359,0.0,7.5,100,0.00,,SKC,0.00,VWS V14.01,2013-08-06 09:35:00,
2013-08-06 05:36:00,78.8,78.8,29.95,North,359,0.0,7.5,100,0.00,,SKC,0.00,VWS V14.01,2013-08-06 09:36:00,
2013-08-06 05:38:00,78.8,78.8,29.95,North,359,0.0,7.5,100,0.00,,SKC,0.00,VWS V14.01,2013-08-06 09:38:00,
2013-08-06 05:39:00,78.8,78.8,29.94,North,359,0.0,7.5,100,0.00,,SKC,0.00,VWS V14.01,2013-08-06 09:39:00,
2013-08-06 05:40:00,78.8,78.8,29.94,North,359,0.0,7.5,100,0.00,,SKC,0.00,VWS V14.01,2013-08-06 09:40:00,
2013-08-06 05:41:00,78.8,78.8,29.94,North,359,0.0,7.5,100,0.00,,SKC,0.00,VWS V14.01,2013-08-06 09:41:00,
2013-08-06 05:42:00,78.7,78.7,29.95,North,359,0.0,7.5,100,0.00,,SKC,0.00,VWS V14.01,2013-08-06 09:42:00,
2013-08-06 05:43:00,78.8,78.8,29.95,North,359,0.0,7.5,100,0.00,,SKC,0.00,VWS V14.01,2013-08-06 09:43:00,
2013-08-06 05:44:00,78.7,78.7,29.95,North,359,0.0,7.5,100,0.00,,SKC,0.00,VWS V14.01,2013-08-06 09:44:00,
2013-08-06 05:45:00,78.7,78.7,29.95,North,359,0.0,7.5,100,0.00,,SKC,0.00,VWS V14.01,2013-08-06 09:45:00,
2013-08-06 05:46:00,78.8,78.8,29.95,North,359,0.0,7.5,100,0.00,,SKC,0.00,VWS V14.01,2013-08-06 09:46:00,
2013-08-06 05:47:00,78.7,78.7,29.95,North,359,0.0,7.5,100,0.00,,SKC,0.00,VWS V14.01,2013-08-06 09:47:00,
2013-08-06 05:48:00,78.7,78.7,29.95,North,359,0.0,7.5,100,0.00,,SKC,0.00,VWS V14.01,2013-08-06 09:48:00,
2013-08-06 05:49:00,78.7,78.7,29.95,North,359,0.0,7.5,100,0.00,,SKC,0.00,VWS V14.01,2013-08-06 09:49:00,
2013-08-06 05:50:00,78.7,78.7,29.95,North,359,0.0,7.5,100,0.00,,SKC,0.00,VWS V14.01,2013-08-06 09:50:00,
2013-08-06 05:51:00,78.5,78.5,29.95,North,359,0.0,7.5,100,0.00,,SKC,0.00,VWS V14.01,2013-08-06 09:51:00,
2013-08-06 05:52:00,78.7,78.7,29.95,North,359,0.0,7.5,100,0.00,,SKC,0.00,VWS V14.01,2013-08-06 09:52:00,
2013-08-06 05:53:00,78.7,78.7,29.95,North,359,0.0,7.5,100,0.00,,SKC,0.00,VWS V14.01,2013-08-06 09:53:00,
2013-08-06 05:54:00,78.7,78.7,29.95,North,359,0.0,7.5,100,0.00,,SKC,0.00,VWS V14.01,2013-08-06 09:54:00,
2013-08-06 05:55:00,78.7,78.5,29.95,North,359,0.0,7.5,100,0.00,,SKC,0.00,VWS V14.01,2013-08-06 09:55:00,
2013-08-06 05:56:00,78.5,78.5,29.95,North,359,0.0,7.5,100,0.00,,SKC,0.00,VWS V14.01,2013-08-06 09:56:00,
2013-08-06 05:57:00,78.5,78.5,29.95,North,359,0.0,7.5,100,0.00,,SKC,0.00,VWS V14.01,2013-08-06 09:57:00,
2013-08-06 05:58:00,78.5,78.5,29.95,North,359,0.0,7.5,100,0.00,,SKC,0.00,VWS V14.01,2013-08-06 09:58:00,
2013-08-06 06:00:00,78.4,78.4,29.95,North,359,0.0,7.5,100,0.00,,SKC,0.00,VWS V14.01,2013-08-06 10:00:00,
2013-08-06 06:01:00,78.4,78.4,29.95,North,359,0.0,7.5,100,0.00,,SKC,0.00,VWS V14.01,2013-08-06 10:01:00,
2013-08-06 06:02:00,78.4,78.4,29.95,North,359,0.0,7.5,100,0.00,,SKC,0.00,VWS V14.01,2013-08-06 10:02:00,
2013-08-06 06:03:00,78.3,78.3,29.95,North,359,0.0,7.5,100,0.00,,SKC,0.00,VWS V14.01,2013-08-06 10:03:00,
2013-08-06 06:05:00,78.4,78.4,29.95,North,359,0.0,7.5,100,0.00,,SKC,0.00,VWS V14.01,2013-08-06 10:05:00,
2013-08-06 06:06:00,78.3,78.3,29.95,North,359,0.0,7.5,100,0.00,,SKC,0.00,VWS V14.01,2013-08-06 10:06:00,
2013-08-06 06:08:00,78.3,78.3,29.95,North,359,0.0,7.5,100,0.00,,SKC,0.00,VWS V14.01,2013-08-06 10:08:00,
2013-08-06 06:10:00,78.2,78.2,29.95,North,359,0.0,7.5,100,0.00,,SKC,0.00,VWS V14.01,2013-08-06 10:10:00,
2013-08-06 06:11:00,78.2,78.2,29.95,North,359,0.0,7.5,100,0.00,,SKC,0.00,VWS V14.01,2013-08-06 10:11:00,
2013-08-06 06:13:00,78.2,78.1,29.95,North,359,0.0,7.5,100,0.00,,SKC,0.00,VWS V14.01,2013-08-06 10:13:00,
2013-08-06 06:15:00,78.2,78.2,29.95,North,359,0.0,7.5,100,0.00,,SKC,0.00,VWS V14.01,2013-08-06 10:15:00,
2013-08-06 06:16:00,78.2,78.2,29.95,North,359,0.0,7.5,100,0.00,,SKC,0.00,VWS V14.01,2013-08-06 10:16:00,
2013-08-06 06:18:00,78.2,78.2,29.95,North,359,0.0,7.5,100,0.00,,SKC,0.00,VWS V14.01,2013-08-06 10:18:00,
2013-08-06 06:20:00,78.2,78.2,29.95,North,359,0.0,7.5,100,0.00,,SKC,0.00,VWS V14.01,2013-08-06 10:20:00,
2013-08-06 06:21:00,78.2,78.2,29.95,North,359,0.0,7.5,100,0.00,,SKC,0.00,VWS V14.01,2013-08-06 10:21:00,
2013-08-06 06:22:00,78.2,78.2,29.95,North,359,0.0,7.5,100,0.00,,SKC,0.00,VWS V14.01,2013-08-06 10:22:00,
2013-08-06 06:23:00,78.2,78.2,29.95,North,359,0.0,7.5,100,0.00,,SKC,0.00,VWS V14.01,2013-08-06 10:23:00,
2013-08-06 06:24:00,78.2,78.2,29.95,North,359,0.0,7.5,100,0.00,,SKC,0.00,VWS V14.01,2013-08-06 10:24:00,
2013-08-06 06:25:00,78.2,78.2,29.96,North,359,0.0,7.5,100,0.00,,SKC,0.00,VWS V14.01,2013-08-06 10:25:00,
2013-08-06 06:26:00,78.3,78.3,29.96,North,359,0.0,7.5,100,0.00,,SKC,0.00,VWS V14.01,2013-08-06 10:26:00,
2013-08-06 06:27:00,78.3,78.3,29.96,North,359,0.0,7.5,100,0.00,,SKC,0.00,VWS V14.01,2013-08-06 10:27:00,
2013-08-06 06:28:00,78.2,78.2,29.96,North,359,0.0,7.5,100,0.00,,SKC,0.00,VWS V14.01,2013-08-06 10:28:00,
2013-08-06 06:29:00,78.3,78.3,29.96,North,359,0.0,7.5,100,0.00,,SKC,0.00,VWS V14.01,2013-08-06 10:29:00,
2013-08-06 06:30:00,78.2,78.2,29.96,North,359,0.0,7.5,100,0.00,,SKC,0.00,VWS V14.01,2013-08-06 10:30:00,
2013-08-06 06:31:00,78.3,78.3,29.96,North,359,0.0,7.5,100,0.00,,SKC,0.00,VWS V14.01,2013-08-06 10:31:00,
2013-08-06 06:32:00,78.3,78.3,29.96,North,359,0.0,7.5,100,0.00,,SKC,0.00,VWS V14.01,2013-08-06 10:32:00,
2013-08-06 06:33:00,78.2,78.2,29.96,North,359,0.0,7.5,100,0.00,,SKC,0.00,VWS V14.01,2013-08-06 10:33:00,
2013-08-06 06:34:00,78.2,78.2,29.96,North,359,0.0,7.5,100,0.00,,SKC,0.00,VWS V14.01,2013-08-06 10:34:00,
2013-08-06 06:36:00,78.2,78.2,29.96,North,359,0.0,7.5,100,0.00,,SKC,0.00,VWS V14.01,2013-08-06 10:36:00,
2013-08-06 06:37:00,78.2,78.2,29.96,North,359,0.0,7.5,100,0.00,,SKC,0.00,VWS V14.01,2013-08-06 10:37:00,
2013-08-06 06:38:00,78.2,78.2,29.96,North,359,0.0,7.5,100,0.00,,SKC,0.00,VWS V14.01,2013-08-06 10:38:00,
2013-08-06 06:39:00,78.2,78.2,29.96,North,359,0.0,7.5,100,0.00,,SKC,0.00,VWS V14.01,2013-08-06 10:39:00,
2013-08-06 06:41:00,78.1,78.1,29.96,North,359,0.0,7.5,100,0.00,,SKC,0.00,VWS V14.01,2013-08-06 10:41:00,
2013-08-06 06:42:00,78.2,78.2,29.96,North,359,0.0,7.5,100,0.00,,SKC,0.00,VWS V14.01,2013-08-06 10:42:00,
2013-08-06 06:44:00,78.2,78.2,29.96,North,359,0.0,7.5,100,0.00,,SKC,0.00,VWS V14.01,2013-08-06 10:44:00,
2013-08-06 06:46:00,78.1,78.1,29.97,North,359,0.0,7.5,100,0.00,,SKC,0.00,VWS V14.01,2013-08-06 10:46:00,
2013-08-06 06:47:00,78.1,78.1,29.97,North,359,0.0,7.5,100,0.00,,SKC,0.00,VWS V14.01,2013-08-06 10:47:00,
2013-08-06 06:48:00,78.1,78.1,29.97,North,359,0.0,7.5,100,0.00,,SKC,0.00,VWS V14.01,2013-08-06 10:48:00,
2013-08-06 06:49:00,78.1,78.1,29.97,North,359,0.0,7.5,100,0.00,,SKC,0.00,VWS V14.01,2013-08-06 10:49:00,
2013-08-06 06:50:00,78.1,78.1,29.97,North,359,0.0,7.5,100,0.00,,SKC,0.00,VWS V14.01,2013-08-06 10:50:00,
2013-08-06 06:52:00,78.1,78.1,29.97,North,359,0.0,7.5,100,0.00,,SKC,0.00,VWS V14.01,2013-08-06 10:52:00,
2013-08-06 06:53:00,78.1,78.1,29.96,North,359,0.0,7.5,100,0.00,,SKC,0.00,VWS V14.01,2013-08-06 10:53:00,
2013-08-06 06:54:00,78.0,78.0,29.96,North,359,0.0,7.5,100,0.00,,SKC,0.00,VWS V14.01,2013-08-06 10:54:00,
2013-08-06 06:55:00,78.1,78.1,29.96,North,359,0.0,7.5,100,0.00,,SKC,0.00,VWS V14.01,2013-08-06 10:55:00,
2013-08-06 06:57:00,78.0,78.0,29.96,North,359,0.0,7.5,100,0.00,,SKC,0.00,VWS V14.01,2013-08-06 10:57:00,
2013-08-06 06:58:00,78.0,78.0,29.96,North,359,0.0,7.5,100,0.00,,SKC,0.00,VWS V14.01,2013-08-06 10:58:00,
2013-08-06 07:00:00,78.0,78.0,29.96,North,359,0.0,7.5,100,0.00,,SKC,0.00,VWS V14.01,2013-08-06 11:00:00,
2013-08-06 07:02:00,78.0,78.0,29.96,North,359,0.0,7.5,100,0.00,,SKC,0.00,VWS V14.01,2013-08-06 11:02:00,
2013-08-06 07:03:00,78.0,78.0,29.96,North,359,0.0,7.5,100,0.00,,SKC,0.00,VWS V14.01,2013-08-06 11:03:00,
2013-08-06 07:05:00,77.9,77.9,29.96,North,359,0.0,7.5,100,0.00,,SKC,0.00,VWS V14.01,2013-08-06 11:05:00,
2013-08-06 07:07:00,77.9,77.9,29.97,North,359,0.0,7.5,100,0.00,,SKC,0.00,VWS V14.01,2013-08-06 11:07:00,
2013-08-06 07:08:00,77.9,77.9,29.97,North,359,0.0,7.5,100,0.00,,SKC,0.00,VWS V14.01,2013-08-06 11:08:00,
2013-08-06 07:10:00,77.8,77.8,29.97,North,359,0.0,7.5,100,0.00,,SKC,0.00,VWS V14.01,2013-08-06 11:10:00,
2013-08-06 07:11:00,77.9,77.8,29.97,North,359,0.0,7.5,100,0.00,,SKC,0.00,VWS V14.01,2013-08-06 11:11:00,
2013-08-06 07:12:00,77.8,77.8,29.97,North,359,0.0,7.5,100,0.00,,SKC,0.00,VWS V14.01,2013-08-06 11:12:00,
2013-08-06 07:13:00,77.8,77.8,29.97,North,359,0.0,7.5,100,0.00,,SKC,0.00,VWS V14.01,2013-08-06 11:13:00,
2013-08-06 07:15:00,77.8,77.8,29.97,North,359,0.0,7.5,100,0.00,,SKC,0.00,VWS V14.01,2013-08-06 11:15:00,
2013-08-06 07:16:00,77.7,77.7,29.97,North,359,0.0,7.5,100,0.00,,SKC,0.00,VWS V14.01,2013-08-06 11:16:00,
2013-08-06 07:17:00,77.7,77.7,29.97,North,359,0.0,7.5,100,0.00,,SKC,0.00,VWS V14.01,2013-08-06 11:17:00,
2013-08-06 07:18:00,77.7,77.7,29.97,North,359,0.0,7.5,100,0.00,,SKC,0.00,VWS V14.01,2013-08-06 11:18:00,
2013-08-06 07:21:00,77.5,77.5,29.97,North,359,0.0,7.5,100,0.00,,SKC,0.00,VWS V14.01,2013-08-06 11:21:00,
2013-08-06 07:22:00,77.5,77.5,29.97,North,359,0.0,7.5,100,0.00,,SKC,0.00,VWS V14.01,2013-08-06 11:22:00,
2013-08-06 07:23:00,77.7,77.7,29.97,North,359,0.0,7.5,100,0.00,,SKC,0.00,VWS V14.01,2013-08-06 11:23:00,
2013-08-06 07:24:00,77.5,77.5,29.97,North,359,0.0,7.5,100,0.00,,SKC,0.00,VWS V14.01,2013-08-06 11:24:00,
2013-08-06 07:26:00,77.5,77.5,29.98,North,359,0.0,7.5,100,0.00,,SKC,0.00,VWS V14.01,2013-08-06 11:26:00,
2013-08-06 07:28:00,77.4,77.4,29.98,North,359,0.0,7.5,100,0.00,,SKC,0.00,VWS V14.01,2013-08-06 11:28:00,
2013-08-06 07:29:00,77.4,77.4,29.98,North,359,0.0,7.5,100,0.00,,SKC,0.00,VWS V14.01,2013-08-06 11:29:00,
2013-08-06 07:31:00,77.4,77.4,29.98,North,359,0.0,7.5,100,0.00,,SKC,0.00,VWS V14.01,2013-08-06 11:31:00,
2013-08-06 07:33:00,77.3,77.3,29.98,North,359,0.0,7.5,100,0.00,,SKC,0.00,VWS V14.01,2013-08-06 11:33:00,
2013-08-06 07:34:00,77.4,77.4,29.98,North,359,0.0,7.5,100,0.00,,SKC,0.00,VWS V14.01,2013-08-06 11:34:00,
2013-08-06 07:36:00,77.3,77.3,29.98,North,359,0.0,7.5,100,0.00,,SKC,0.00,VWS V14.01,2013-08-06 11:36:00,
2013-08-06 07:38:00,77.3,77.3,29.98,North,359,0.0,7.5,100,0.00,,SKC,0.00,VWS V14.01,2013-08-06 11:38:00,
2013-08-06 07:39:00,77.3,77.3,29.98,North,359,0.0,7.5,100,0.00,,SKC,0.00,VWS V14.01,2013-08-06 11:39:00,
2013-08-06 07:41:00,77.4,77.4,29.98,North,359,0.0,7.5,100,0.00,,SKC,0.00,VWS V14.01,2013-08-06 11:41:00,
2013-08-06 07:43:00,77.3,77.3,29.98,North,359,0.0,7.5,100,0.00,,SKC,0.00,VWS V14.01,2013-08-06 11:43:00,
2013-08-06 07:44:00,77.3,77.3,29.97,North,359,0.0,7.5,100,0.00,,SKC,0.00,VWS V14.01,2013-08-06 11:44:00,
2013-08-06 07:46:00,77.3,77.3,29.98,North,359,0.0,7.5,100,0.00,,SKC,0.00,VWS V14.01,2013-08-06 11:46:00,
2013-08-06 07:47:00,77.3,77.3,29.98,North,359,0.0,7.5,100,0.00,,SKC,0.00,VWS V14.01,2013-08-06 11:47:00,
2013-08-06 07:48:00,77.3,77.3,29.98,North,359,0.0,7.5,100,0.00,,SKC,0.00,VWS V14.01,2013-08-06 11:48:00,
2013-08-06 07:49:00,77.3,77.3,29.98,North,359,0.0,7.5,100,0.00,,SKC,0.00,VWS V14.01,2013-08-06 11:49:00,
2013-08-06 07:52:00,77.3,77.3,29.98,North,359,0.0,7.5,100,0.00,,SKC,0.00,VWS V14.01,2013-08-06 11:52:00,
2013-08-06 07:54:00,77.3,77.3,29.97,North,359,0.0,7.5,100,0.00,,SKC,0.00,VWS V14.01,2013-08-06 11:54:00,
2013-08-06 07:55:00,77.4,77.4,29.98,North,359,0.0,7.5,100,0.00,,SKC,0.00,VWS V14.01,2013-08-06 11:55:00,
2013-08-06 07:57:00,77.4,77.4,29.98,North,359,0.0,7.5,100,0.00,,SKC,0.00,VWS V14.01,2013-08-06 11:57:00,
2013-08-06 07:59:00,77.4,77.4,29.98,North,359,0.0,7.5,100,0.00,,SKC,0.00,VWS V14.01,2013-08-06 11:59:00,
2013-08-06 08:00:00,77.4,77.4,29.98,North,359,0.0,7.5,100,0.00,,SKC,0.00,VWS V14.01,2013-08-06 12:00:00,
2013-08-06 08:02:00,77.4,77.4,29.98,North,359,0.0,7.5,100,0.00,,SKC,0.00,VWS V14.01,2013-08-06 12:02:00,
2013-08-06 08:04:00,77.4,77.4,29.98,North,359,0.0,7.5,100,0.00,,SKC,0.00,VWS V14.01,2013-08-06 12:04:00,
2013-08-06 08:05:00,77.4,77.4,29.98,North,359,0.0,7.5,100,0.00,,SKC,0.00,VWS V14.01,2013-08-06 12:05:00,
2013-08-06 08:07:00,77.7,77.7,29.98,North,359,0.0,7.5,100,0.00,,SKC,0.00,VWS V14.01,2013-08-06 12:07:00,
2013-08-06 08:09:00,77.7,77.7,29.98,North,359,0.0,7.5,100,0.00,,SKC,0.00,VWS V14.01,2013-08-06 12:09:00,
2013-08-06 08:10:00,77.7,77.7,29.98,North,359,0.0,7.5,100,0.00,,SKC,0.00,VWS V14.01,2013-08-06 12:10:00,
2013-08-06 08:11:00,77.7,77.7,29.98,North,359,0.0,7.5,100,0.00,,SKC,0.00,VWS V14.01,2013-08-06 12:11:00,
2013-08-06 08:12:00,77.7,77.7,29.98,North,359,0.0,7.5,100,0.00,,SKC,0.00,VWS V14.01,2013-08-06 12:12:00,
2013-08-06 08:14:00,77.8,77.8,29.99,North,359,0.0,7.5,100,0.00,,SKC,0.00,VWS V14.01,2013-08-06 12:14:00,
2013-08-06 08:15:00,77.8,77.8,29.98,North,359,0.0,7.5,100,0.00,,SKC,0.00,VWS V14.01,2013-08-06 12:15:00,
2013-08-06 08:16:00,77.8,77.8,29.98,North,359,0.0,7.5,100,0.00,,SKC,0.00,VWS V14.01,2013-08-06 12:16:00,
2013-08-06 08:17:00,77.8,77.8,29.99,North,359,0.0,7.5,100,0.00,,SKC,0.00,VWS V14.01,2013-08-06 12:17:00,
2013-08-06 08:20:00,77.9,77.9,29.99,North,359,0.0,7.5,100,0.00,,SKC,0.00,VWS V14.01,2013-08-06 12:20:00,
2013-08-06 08:21:00,77.9,77.9,29.99,North,359,0.0,7.5,100,0.00,,SKC,0.00,VWS V14.01,2013-08-06 12:21:00,
2013-08-06 08:22:00,77.9,77.9,29.99,North,359,0.0,7.5,100,0.00,,SKC,0.00,VWS V14.01,2013-08-06 12:22:00,
2013-08-06 08:25:00,78.0,78.0,29.99,North,359,0.0,7.5,100,0.00,,SKC,0.00,VWS V14.01,2013-08-06 12:25:00,
2013-08-06 08:26:00,78.0,78.0,29.99,North,359,0.0,7.5,100,0.00,,SKC,0.00,VWS V14.01,2013-08-06 12:26:00,
2013-08-06 08:27:00,78.0,78.0,29.99,North,359,0.0,7.5,100,0.00,,SKC,0.00,VWS V14.01,2013-08-06 12:27:00,
2013-08-06 08:30:00,78.2,78.2,29.99,North,359,0.0,7.5,100,0.00,,SKC,0.00,VWS V14.01,2013-08-06 12:30:00,
2013-08-06 08:31:00,78.2,78.2,29.99,North,359,0.0,7.5,100,0.00,,SKC,0.00,VWS V14.01,2013-08-06 12:31:00,
2013-08-06 08:32:00,78.3,78.3,29.99,North,359,0.0,7.5,100,0.00,,SKC,0.00,VWS V14.01,2013-08-06 12:32:00,
2013-08-06 08:35:00,78.2,78.2,29.99,North,359,0.0,7.5,100,0.00,,SKC,0.00,VWS V14.01,2013-08-06 12:35:00,
2013-08-06 08:36:00,78.3,78.3,29.99,North,359,0.0,7.5,100,0.00,,SKC,0.00,VWS V14.01,2013-08-06 12:36:00,
2013-08-06 08:37:00,78.3,78.3,29.99,North,359,0.0,7.5,100,0.00,,SKC,0.00,VWS V14.01,2013-08-06 12:37:00,
2013-08-06 08:40:00,78.4,78.4,29.99,North,359,0.0,7.5,100,0.00,,SKC,0.00,VWS V14.01,2013-08-06 12:40:00,
2013-08-06 08:41:00,78.4,78.4,29.99,North,359,0.0,7.5,100,0.00,,SKC,0.00,VWS V14.01,2013-08-06 12:41:00,
2013-08-06 08:42:00,78.5,78.5,29.99,North,359,0.0,7.5,100,0.00,,SKC,0.00,VWS V14.01,2013-08-06 12:42:00,
2013-08-06 08:43:00,78.5,78.5,29.99,North,359,0.0,7.5,100,0.00,,SKC,0.00,VWS V14.01,2013-08-06 12:43:00,
2013-08-06 08:45:00,78.7,78.7,29.99,North,359,0.0,7.5,100,0.00,,SKC,0.00,VWS V14.01,2013-08-06 12:45:00,
2013-08-06 08:47:00,78.7,78.7,29.99,North,359,0.0,7.5,100,0.00,,SKC,0.00,VWS V14.01,2013-08-06 12:47:00,
2013-08-06 08:48:00,78.5,78.5,29.99,North,359,0.0,7.5,100,0.00,,SKC,0.00,VWS V14.01,2013-08-06 12:48:00,
2013-08-06 08:50:00,78.8,78.8,29.99,North,359,0.0,7.5,100,0.00,,SKC,0.00,VWS V14.01,2013-08-06 12:50:00,
2013-08-06 08:52:00,78.8,78.8,30.00,North,359,0.0,7.5,100,0.00,,SKC,0.00,VWS V14.01,2013-08-06 12:52:00,
2013-08-06 08:53:00,78.8,78.9,30.00,North,359,0.0,7.5,100,0.00,,SKC,0.00,VWS V14.01,2013-08-06 12:53:00,
2013-08-06 08:55:00,79.0,79.0,30.00,North,359,0.0,7.5,100,0.00,,SKC,0.00,VWS V14.01,2013-08-06 12:55:00,
2013-08-06 08:57:00,79.0,79.0,30.00,North,359,0.0,7.5,100,0.00,,SKC,0.00,VWS V14.01,2013-08-06 12:57:00,
2013-08-06 08:58:00,79.0,79.0,30.00,North,359,0.0,7.5,100,0.00,,SKC,0.00,VWS V14.01,2013-08-06 12:58:00,
2013-08-06 09:00:00,79.1,79.1,30.00,North,359,0.0,7.5,100,0.00,,SKC,0.00,VWS V14.01,2013-08-06 13:00:00,
2013-08-06 09:02:00,79.2,79.2,30.00,North,359,0.0,7.5,100,0.00,,SKC,0.00,VWS V14.01,2013-08-06 13:02:00,
2013-08-06 09:03:00,79.2,79.2,30.00,North,359,0.0,7.5,100,0.00,,SKC,0.00,VWS V14.01,2013-08-06 13:03:00,
2013-08-06 09:05:00,79.1,79.2,30.00,North,359,0.0,7.5,100,0.00,,SKC,0.00,VWS V14.01,2013-08-06 13:05:00,
2013-08-06 09:07:00,79.2,79.2,30.00,North,359,0.0,7.5,100,0.00,,SKC,0.00,VWS V14.01,2013-08-06 13:07:00,
2013-08-06 09:08:00,79.2,79.2,30.00,North,359,0.0,7.5,100,0.00,,SKC,0.00,VWS V14.01,2013-08-06 13:08:00,
2013-08-06 09:10:00,79.3,79.3,30.00,North,359,0.0,7.5,100,0.00,,SKC,0.00,VWS V14.01,2013-08-06 13:10:00,
2013-08-06 09:12:00,79.4,79.4,30.00,North,359,0.0,7.5,100,0.00,,SKC,0.00,VWS V14.01,2013-08-06 13:12:00,
2013-08-06 09:13:00,79.5,79.5,30.00,North,359,0.0,7.5,100,0.00,,SKC,0.00,VWS V14.01,2013-08-06 13:13:00,
2013-08-06 09:16:00,79.7,79.7,30.00,North,359,0.0,7.5,100,0.00,,SKC,0.00,VWS V14.01,2013-08-06 13:16:00,
2013-08-06 09:17:00,79.7,79.7,30.00,North,359,0.0,7.5,100,0.00,,SKC,0.00,VWS V14.01,2013-08-06 13:17:00,
2013-08-06 09:18:00,79.8,79.8,30.00,North,359,0.0,7.5,100,0.00,,SKC,0.00,VWS V14.01,2013-08-06 13:18:00,
2013-08-06 09:21:00,79.8,79.8,30.00,North,359,0.0,7.5,100,0.00,,SKC,0.00,VWS V14.01,2013-08-06 13:21:00,
2013-08-06 09:22:00,79.8,79.8,30.00,North,359,0.0,7.5,100,0.00,,SKC,0.00,VWS V14.01,2013-08-06 13:22:00,
2013-08-06 09:23:00,79.8,79.8,30.00,North,359,0.0,7.5,100,0.00,,SKC,0.00,VWS V14.01,2013-08-06 13:23:00,
2013-08-06 09:24:00,79.8,79.8,30.00,North,359,0.0,7.5,100,0.00,,SKC,0.00,VWS V14.01,2013-08-06 13:24:00,
2013-08-06 09:26:00,79.9,79.9,30.00,North,359,0.0,7.5,100,0.00,,SKC,0.00,VWS V14.01,2013-08-06 13:26:00,
2013-08-06 09:27:00,80.0,80.0,30.00,North,359,0.0,7.5,100,0.00,,SKC,0.00,VWS V14.01,2013-08-06 13:27:00,
2013-08-06 09:28:00,80.0,80.0,30.00,North,359,0.0,7.5,100,0.00,,SKC,0.00,VWS V14.01,2013-08-06 13:28:00,
2013-08-06 09:29:00,80.0,80.1,30.00,North,359,0.0,7.5,100,0.00,,SKC,0.00,VWS V14.01,2013-08-06 13:29:00,
2013-08-06 09:31:00,80.1,80.1,30.00,North,359,0.0,7.5,100,0.00,,SKC,0.00,VWS V14.01,2013-08-06 13:31:00,
2013-08-06 09:33:00,80.2,80.2,30.00,North,359,0.0,7.5,100,0.00,,SKC,0.00,VWS V14.01,2013-08-06 13:33:00,
2013-08-06 09:34:00,80.2,80.2,30.00,North,359,0.0,7.5,100,0.00,,SKC,0.00,VWS V14.01,2013-08-06 13:34:00,
2013-08-06 09:37:00,80.3,80.3,30.00,North,359,0.0,7.5,100,0.00,,SKC,0.00,VWS V14.01,2013-08-06 13:37:00,
2013-08-06 09:38:00,80.4,80.4,30.00,North,359,0.0,7.5,100,0.00,,SKC,0.00,VWS V14.01,2013-08-06 13:38:00,
2013-08-06 09:39:00,80.5,80.5,30.00,North,359,0.0,7.5,100,0.00,,SKC,0.00,VWS V14.01,2013-08-06 13:39:00,
2013-08-06 09:41:00,80.5,80.5,30.00,North,359,0.0,7.5,100,0.00,,SKC,0.00,VWS V14.01,2013-08-06 13:41:00,
2013-08-06 09:43:00,80.4,80.4,30.00,North,359,0.0,7.5,100,0.00,,SKC,0.00,VWS V14.01,2013-08-06 13:43:00,
2013-08-06 09:44:00,80.4,80.5,30.00,North,359,0.0,7.5,100,0.00,,SKC,0.00,VWS V14.01,2013-08-06 13:44:00,
2013-08-06 09:47:00,80.5,80.3,30.00,North,359,0.0,7.5,100,0.00,,SKC,0.00,VWS V14.01,2013-08-06 13:47:00,
2013-08-06 09:48:00,80.4,80.3,30.00,North,359,0.0,7.5,100,0.00,,SKC,0.00,VWS V14.01,2013-08-06 13:48:00,
2013-08-06 09:49:00,80.3,80.3,30.00,North,359,0.0,7.5,100,0.00,,SKC,0.00,VWS V14.01,2013-08-06 13:49:00,
2013-08-06 09:52:00,80.5,80.3,30.00,North,359,0.0,7.5,100,0.00,,SKC,0.00,VWS V14.01,2013-08-06 13:52:00,
2013-08-06 09:53:00,80.5,80.5,30.00,North,359,0.0,7.5,100,0.00,,SKC,0.00,VWS V14.01,2013-08-06 13:53:00,
2013-08-06 09:54:00,80.5,80.5,30.00,North,359,0.0,7.5,100,0.00,,SKC,0.00,VWS V14.01,2013-08-06 13:54:00,
2013-08-06 09:57:00,80.4,80.4,30.00,North,359,0.0,7.5,100,0.00,,SKC,0.00,VWS V14.01,2013-08-06 13:57:00,
2013-08-06 09:58:00,80.5,80.5,30.00,North,359,0.0,7.5,100,0.00,,SKC,0.00,VWS V14.01,2013-08-06 13:58:00,
2013-08-06 09:59:00,80.6,80.7,30.00,North,359,0.0,7.5,100,0.00,,SKC,0.00,VWS V14.01,2013-08-06 13:59:00,
2013-08-06 10:02:00,81.1,81.1,30.00,North,359,0.0,7.5,100,0.00,,SKC,0.00,VWS V14.01,2013-08-06 14:02:00,
2013-08-06 10:03:00,81.1,81.1,30.00,North,359,0.0,7.5,100,0.00,,SKC,0.00,VWS V14.01,2013-08-06 14:03:00,
2013-08-06 10:04:00,81.2,81.2,30.00,North,359,0.0,7.5,100,0.00,,SKC,0.00,VWS V14.01,2013-08-06 14:04:00,
2013-08-06 10:05:00,81.2,81.2,30.00,North,359,0.0,7.5,100,0.00,,SKC,0.00,VWS V14.01,2013-08-06 14:05:00,
2013-08-06 10:07:00,81.4,81.4,30.00,North,359,0.0,7.5,100,0.00,,SKC,0.00,VWS V14.01,2013-08-06 14:07:00,
2013-08-06 10:08:00,81.4,81.4,30.00,North,359,0.0,7.5,100,0.00,,SKC,0.00,VWS V14.01,2013-08-06 14:08:00,
2013-08-06 10:10:00,81.5,81.5,30.00,North,359,0.0,7.5,100,0.00,,SKC,0.00,VWS V14.01,2013-08-06 14:10:00,
2013-08-06 10:12:00,81.6,81.6,30.00,North,359,0.0,7.5,100,0.00,,SKC,0.00,VWS V14.01,2013-08-06 14:12:00,
2013-08-06 10:13:00,81.7,81.7,30.00,North,359,0.0,7.5,100,0.00,,SKC,0.00,VWS V14.01,2013-08-06 14:13:00,
2013-08-06 10:14:00,81.6,81.6,30.00,North,359,0.0,7.5,100,0.00,,SKC,0.00,VWS V14.01,2013-08-06 14:14:00,
2013-08-06 10:15:00,81.6,81.6,30.00,North,359,0.0,7.5,100,0.00,,SKC,0.00,VWS V14.01,2013-08-06 14:15:00,
2013-08-06 10:16:00,81.6,81.6,30.00,North,359,0.0,7.5,100,0.00,,SKC,0.00,VWS V14.01,2013-08-06 14:16:00,
2013-08-06 10:17:00,81.8,81.8,30.00,North,359,0.0,7.5,100,0.00,,SKC,0.00,VWS V14.01,2013-08-06 14:17:00,
2013-08-06 10:19:00,81.9,81.9,30.00,North,359,0.0,7.5,100,0.00,,SKC,0.00,VWS V14.01,2013-08-06 14:19:00,
2013-08-06 10:20:00,82.0,82.0,30.00,North,359,0.0,7.5,100,0.00,,SKC,0.00,VWS V14.01,2013-08-06 14:20:00,
2013-08-06 10:21:00,82.0,82.0,30.00,North,359,0.0,7.5,100,0.00,,SKC,0.00,VWS V14.01,2013-08-06 14:21:00,
2013-08-06 10:23:00,82.2,82.2,30.00,North,359,0.0,7.5,100,0.00,,SKC,0.00,VWS V14.01,2013-08-06 14:23:00,
2013-08-06 10:24:00,82.2,82.2,30.00,North,359,0.0,7.5,100,0.00,,SKC,0.00,VWS V14.01,2013-08-06 14:24:00,
2013-08-06 10:26:00,82.1,82.1,30.00,North,359,0.0,7.5,100,0.00,,SKC,0.00,VWS V14.01,2013-08-06 14:26:00,
2013-08-06 10:28:00,82.4,82.4,30.00,North,359,0.0,7.5,100,0.00,,SKC,0.00,VWS V14.01,2013-08-06 14:28:00,
2013-08-06 10:29:00,82.5,82.5,30.00,North,359,0.0,7.5,100,0.00,,SKC,0.00,VWS V14.01,2013-08-06 14:29:00,
2013-08-06 10:31:00,82.6,82.6,29.99,North,359,0.0,7.5,100,0.00,,SKC,0.00,VWS V14.01,2013-08-06 14:31:00,
2013-08-06 10:33:00,82.6,82.6,30.00,North,359,0.0,7.5,100,0.00,,SKC,0.00,VWS V14.01,2013-08-06 14:33:00,
2013-08-06 10:34:00,82.7,82.7,30.00,North,359,0.0,7.5,100,0.00,,SKC,0.00,VWS V14.01,2013-08-06 14:34:00,
2013-08-06 10:36:00,83.0,83.0,30.00,North,359,0.0,7.5,100,0.00,,SKC,0.00,VWS V14.01,2013-08-06 14:36:00,
2013-08-06 10:37:00,83.1,83.1,30.00,North,359,0.0,7.5,100,0.00,,SKC,0.00,VWS V14.01,2013-08-06 14:37:00,
2013-08-06 10:38:00,83.3,83.2,30.00,North,359,0.0,7.5,100,0.00,,SKC,0.00,VWS V14.01,2013-08-06 14:38:00,
2013-08-06 10:39:00,83.3,83.2,30.00,North,359,0.0,7.5,100,0.00,,SKC,0.00,VWS V14.01,2013-08-06 14:39:00,
2013-08-06 10:41:00,83.2,83.0,30.00,North,359,0.0,7.5,99,0.00,,SKC,0.00,VWS V14.01,2013-08-06 14:41:00,
2013-08-06 10:42:00,83.2,82.9,30.00,North,359,0.0,7.5,99,0.00,,SKC,0.00,VWS V14.01,2013-08-06 14:42:00,
2013-08-06 10:43:00,83.4,83.2,30.00,North,359,0.0,7.5,99,0.00,,SKC,0.00,VWS V14.01,2013-08-06 14:43:00,
2013-08-06 10:44:00,83.5,83.2,30.00,North,359,0.0,7.5,99,0.00,,SKC,0.00,VWS V14.01,2013-08-06 14:44:00,
2013-08-06 10:46:00,83.5,83.1,30.00,North,359,0.0,7.5,99,0.00,,SKC,0.00,VWS V14.01,2013-08-06 14:46:00,
2013-08-06 10:47:00,83.5,82.9,30.00,North,359,0.0,7.5,98,0.00,,SKC,0.00,VWS V14.01,2013-08-06 14:47:00,
2013-08-06 10:49:00,83.5,82.8,30.00,North,359,0.0,7.5,98,0.00,,SKC,0.00,VWS V14.01,2013-08-06 14:49:00,
2013-08-06 10:50:00,83.6,83.1,30.00,North,359,0.0,7.5,98,0.00,,SKC,0.00,VWS V14.01,2013-08-06 14:50:00,
2013-08-06 10:51:00,83.6,83.1,30.00,North,359,0.0,7.5,98,0.00,,SKC,0.00,VWS V14.01,2013-08-06 14:51:00,
2013-08-06 10:52:00,83.8,83.2,30.00,North,359,0.0,7.5,98,0.00,,SKC,0.00,VWS V14.01,2013-08-06 14:52:00,
2013-08-06 10:54:00,83.9,83.1,29.99,North,359,0.0,7.5,97,0.00,,SKC,0.00,VWS V14.01,2013-08-06 14:54:00,
2013-08-06 10:55:00,83.9,83.1,30.00,North,359,0.0,7.5,97,0.00,,SKC,0.00,VWS V14.01,2013-08-06 14:55:00,
2013-08-06 10:56:00,83.8,82.9,30.00,North,359,0.0,7.5,97,0.00,,SKC,0.00,VWS V14.01,2013-08-06 14:56:00,
2013-08-06 10:57:00,83.9,83.1,30.00,North,359,0.0,7.5,98,0.00,,SKC,0.00,VWS V14.01,2013-08-06 14:57:00,
2013-08-06 10:59:00,83.8,83.1,30.00,North,359,0.0,7.5,98,0.00,,SKC,0.00,VWS V14.01,2013-08-06 14:59:00,
2013-08-06 11:01:00,83.9,83.2,30.00,North,359,0.0,7.5,98,0.00,,SKC,0.00,VWS V14.01,2013-08-06 15:01:00,
2013-08-06 11:02:00,84.2,83.5,30.00,North,359,0.0,7.5,98,0.00,,SKC,0.00,VWS V14.01,2013-08-06 15:02:00,
2013-08-06 11:04:00,84.3,83.3,30.00,North,359,0.0,7.5,97,0.00,,SKC,0.00,VWS V14.01,2013-08-06 15:04:00,
2013-08-06 11:06:00,84.5,83.7,30.00,North,359,0.0,7.5,97,0.00,,SKC,0.00,VWS V14.01,2013-08-06 15:06:00,
2013-08-06 11:07:00,84.5,83.4,30.00,North,359,0.0,7.5,96,0.00,,SKC,0.00,VWS V14.01,2013-08-06 15:07:00,
2013-08-06 11:09:00,84.7,83.6,30.00,North,359,0.0,7.5,96,0.00,,SKC,0.00,VWS V14.01,2013-08-06 15:09:00,
2013-08-06 11:11:00,84.8,83.6,30.00,North,359,0.0,7.5,96,0.00,,SKC,0.00,VWS V14.01,2013-08-06 15:11:00,
2013-08-06 11:13:00,85.1,83.8,29.99,North,359,0.0,7.5,96,0.00,,SKC,0.00,VWS V14.01,2013-08-06 15:13:00,
2013-08-06 11:14:00,85.1,83.8,30.00,North,359,0.0,7.5,96,0.00,,SKC,0.00,VWS V14.01,2013-08-06 15:14:00,
2013-08-06 11:15:00,85.2,83.9,30.00,North,359,0.0,7.5,96,0.00,,SKC,0.00,VWS V14.01,2013-08-06 15:15:00,
2013-08-06 11:16:00,85.5,84.0,30.00,North,359,0.0,7.5,95,0.00,,SKC,0.00,VWS V14.01,2013-08-06 15:16:00,
2013-08-06 11:18:00,85.5,83.9,30.00,North,359,0.0,7.5,95,0.00,,SKC,0.00,VWS V14.01,2013-08-06 15:18:00,
2013-08-06 11:20:00,85.5,83.9,30.00,North,359,0.0,7.5,95,0.00,,SKC,0.00,VWS V14.01,2013-08-06 15:20:00,
2013-08-06 11:21:00,85.5,84.0,29.99,North,359,0.0,7.5,95,0.00,,SKC,0.00,VWS V14.01,2013-08-06 15:21:00,
2013-08-06 11:22:00,85.5,84.1,29.99,North,359,0.0,7.5,96,0.00,,SKC,0.00,VWS V14.01,2013-08-06 15:22:00,
2013-08-06 11:23:00,85.7,83.8,30.00,North,359,0.0,7.5,95,0.00,,SKC,0.00,VWS V14.01,2013-08-06 15:23:00,
2013-08-06 11:25:00,85.7,83.7,29.99,North,359,0.0,7.5,94,0.00,,SKC,0.00,VWS V14.01,2013-08-06 15:25:00,
2013-08-06 11:27:00,85.7,83.9,30.00,North,359,0.0,7.5,94,0.00,,SKC,0.00,VWS V14.01,2013-08-06 15:27:00,
2013-08-06 11:28:00,85.8,83.7,30.00,North,359,0.0,7.5,93,0.00,,SKC,0.00,VWS V14.01,2013-08-06 15:28:00,
2013-08-06 11:30:00,85.7,83.3,30.00,North,359,0.0,7.5,93,0.00,,SKC,0.00,VWS V14.01,2013-08-06 15:30:00,
2013-08-06 11:32:00,85.8,83.6,30.00,North,359,0.0,7.5,93,0.00,,SKC,0.00,VWS V14.01,2013-08-06 15:32:00,
2013-08-06 11:33:00,85.7,82.6,30.00,North,359,0.0,7.5,90,0.00,,SKC,0.00,VWS V14.01,2013-08-06 15:33:00,
2013-08-06 11:35:00,86.0,82.8,30.00,North,359,0.0,7.5,91,0.00,,SKC,0.00,VWS V14.01,2013-08-06 15:35:00,
2013-08-06 11:37:00,86.0,82.6,30.00,North,359,0.0,7.5,90,0.00,,SKC,0.00,VWS V14.01,2013-08-06 15:37:00,
2013-08-06 11:38:00,86.0,82.5,30.00,North,359,0.0,7.5,89,0.00,,SKC,0.00,VWS V14.01,2013-08-06 15:38:00,
2013-08-06 11:40:00,86.1,83.2,30.00,North,359,0.0,7.5,91,0.00,,SKC,0.00,VWS V14.01,2013-08-06 15:40:00,
2013-08-06 11:41:00,86.2,83.3,30.00,North,359,0.0,7.5,91,0.00,,SKC,0.00,VWS V14.01,2013-08-06 15:41:00,
2013-08-06 11:42:00,86.2,83.0,30.00,North,359,0.0,7.5,90,0.00,,SKC,0.00,VWS V14.01,2013-08-06 15:42:00,
2013-08-06 11:44:00,86.1,82.6,30.00,North,359,0.0,7.5,89,0.00,,SKC,0.00,VWS V14.01,2013-08-06 15:44:00,
2013-08-06 11:46:00,86.2,82.7,30.00,North,359,0.0,7.5,89,0.00,,SKC,0.00,VWS V14.01,2013-08-06 15:46:00,
2013-08-06 11:47:00,86.3,83.0,30.00,North,359,0.0,7.5,90,0.00,,SKC,0.00,VWS V14.01,2013-08-06 15:47:00,
2013-08-06 11:49:00,86.5,83.1,30.00,North,359,0.0,7.5,90,0.00,,SKC,0.00,VWS V14.01,2013-08-06 15:49:00,
2013-08-06 11:51:00,86.7,83.4,29.99,North,359,0.0,7.5,90,0.00,,SKC,0.00,VWS V14.01,2013-08-06 15:51:00,
2013-08-06 11:52:00,86.7,83.3,30.00,North,359,0.0,7.5,90,0.00,,SKC,0.00,VWS V14.01,2013-08-06 15:52:00,
2013-08-06 11:54:00,87.1,83.8,29.99,North,359,0.0,7.5,90,0.00,,SKC,0.00,VWS V14.01,2013-08-06 15:54:00,
2013-08-06 11:56:00,87.3,83.3,29.99,North,359,0.0,7.5,88,0.00,,SKC,0.00,VWS V14.01,2013-08-06 15:56:00,
2013-08-06 11:57:00,87.4,83.4,29.99,North,359,0.0,7.5,88,0.00,,SKC,0.00,VWS V14.01,2013-08-06 15:57:00,
2013-08-06 11:58:00,87.5,83.2,29.99,North,359,0.0,7.5,87,0.00,,SKC,0.00,VWS V14.01,2013-08-06 15:58:00,
2013-08-06 11:59:00,87.4,83.2,30.00,North,359,0.0,7.5,87,0.00,,SKC,0.00,VWS V14.01,2013-08-06 15:59:00,
2013-08-06 12:01:00,87.3,83.4,29.99,North,359,0.0,7.5,88,0.00,,SKC,0.00,VWS V14.01,2013-08-06 16:01:00,
2013-08-06 12:02:00,87.3,83.7,29.99,North,359,0.0,7.5,89,0.00,,SKC,0.00,VWS V14.01,2013-08-06 16:02:00,
2013-08-06 12:03:00,87.2,82.4,29.99,North,359,0.0,7.5,86,0.00,,SKC,0.00,VWS V14.01,2013-08-06 16:03:00,
2013-08-06 12:04:00,86.9,82.9,29.99,North,359,0.0,7.5,88,0.00,,SKC,0.00,VWS V14.01,2013-08-06 16:04:00,
2013-08-06 12:06:00,86.9,83.3,29.99,North,359,0.0,7.5,89,0.00,,SKC,0.00,VWS V14.01,2013-08-06 16:06:00,
2013-08-06 12:07:00,87.0,83.2,29.99,North,359,0.0,7.5,89,0.00,,SKC,0.00,VWS V14.01,2013-08-06 16:07:00,
2013-08-06 12:08:00,86.9,83.0,29.99,North,359,0.0,7.5,88,0.00,,SKC,0.00,VWS V14.01,2013-08-06 16:08:00,
2013-08-06 12:09:00,87.0,83.3,30.00,North,359,0.0,7.5,89,0.00,,SKC,0.00,VWS V14.01,2013-08-06 16:09:00,
2013-08-06 12:11:00,87.0,82.9,30.00,North,359,0.0,7.5,88,0.00,,SKC,0.00,VWS V14.01,2013-08-06 16:11:00,
2013-08-06 12:12:00,87.0,82.7,30.00,North,359,0.0,7.5,87,0.00,,SKC,0.00,VWS V14.01,2013-08-06 16:12:00,
2013-08-06 12:13:00,87.1,82.9,30.00,North,359,0.0,7.5,87,0.00,,SKC,0.00,VWS V14.01,2013-08-06 16:13:00,
2013-08-06 12:15:00,87.3,83.2,29.99,North,359,0.0,7.5,88,0.00,,SKC,0.00,VWS V14.01,2013-08-06 16:15:00,
2013-08-06 12:16:00,87.5,83.4,29.99,North,359,0.0,7.5,88,0.00,,SKC,0.00,VWS V14.01,2013-08-06 16:16:00,
2013-08-06 12:18:00,87.6,83.0,30.00,North,359,0.0,7.5,86,0.00,,SKC,0.00,VWS V14.01,2013-08-06 16:18:00,
2013-08-06 12:20:00,87.5,82.9,30.00,North,359,0.0,7.5,86,0.00,,SKC,0.00,VWS V14.01,2013-08-06 16:20:00,
2013-08-06 12:21:00,87.5,83.0,29.99,North,359,0.0,7.5,87,0.00,,SKC,0.00,VWS V14.01,2013-08-06 16:21:00,
2013-08-06 12:23:00,87.5,83.0,30.00,North,359,0.0,7.5,86,0.00,,SKC,0.00,VWS V14.01,2013-08-06 16:23:00,
2013-08-06 12:25:00,87.5,83.3,30.00,North,359,0.0,7.5,88,0.00,,SKC,0.00,VWS V14.01,2013-08-06 16:25:00,
2013-08-06 12:26:00,87.4,82.7,29.99,North,359,0.0,7.5,86,0.00,,SKC,0.00,VWS V14.01,2013-08-06 16:26:00,
2013-08-06 12:28:00,87.5,83.1,30.00,North,359,0.0,7.5,87,0.00,,SKC,0.00,VWS V14.01,2013-08-06 16:28:00,
2013-08-06 12:30:00,87.6,82.9,29.99,North,359,0.0,7.5,86,0.00,,SKC,0.00,VWS V14.01,2013-08-06 16:30:00,
2013-08-06 12:31:00,87.7,82.9,29.99,North,359,0.0,7.5,86,0.00,,SKC,0.00,VWS V14.01,2013-08-06 16:31:00,
2013-08-06 12:32:00,90.3,82.2,29.98,North,359,0.0,7.5,77,0.00,,SKC,0.00,VWS V14.01,2013-08-06 16:32:00,
2013-08-06 12:33:00,88.0,83.2,29.99,North,359,0.0,7.5,86,0.00,,SKC,0.00,VWS V14.01,2013-08-06 16:33:00,
2013-08-06 12:34:00,88.0,82.9,29.99,North,359,0.0,7.5,85,0.00,,SKC,0.00,VWS V14.01,2013-08-06 16:34:00,
2013-08-06 12:35:00,88.0,82.7,29.99,North,359,0.0,7.5,84,0.00,,SKC,0.00,VWS V14.01,2013-08-06 16:35:00,
2013-08-06 12:36:00,88.0,82.7,29.99,North,359,0.0,7.5,84,0.00,,SKC,0.00,VWS V14.01,2013-08-06 16:36:00,
2013-08-06 12:38:00,87.7,82.9,29.99,North,359,0.0,7.5,86,0.00,,SKC,0.00,VWS V14.01,2013-08-06 16:38:00,
2013-08-06 12:39:00,87.7,83.3,29.99,North,359,0.0,7.5,87,0.00,,SKC,0.00,VWS V14.01,2013-08-06 16:39:00,
2013-08-06 12:40:00,87.6,82.8,29.99,North,359,0.0,7.5,86,0.00,,SKC,0.00,VWS V14.01,2013-08-06 16:40:00,
2013-08-06 12:41:00,87.6,82.9,29.99,North,359,0.0,7.5,86,0.00,,SKC,0.00,VWS V14.01,2013-08-06 16:41:00,
2013-08-06 12:43:00,87.7,83.2,29.99,North,359,0.0,7.5,87,0.00,,SKC,0.00,VWS V14.01,2013-08-06 16:43:00,
2013-08-06 12:44:00,87.7,83.2,29.99,North,359,0.0,7.5,87,0.00,,SKC,0.00,VWS V14.01,2013-08-06 16:44:00,
2013-08-06 12:45:00,88.0,83.8,29.99,North,359,0.0,7.5,87,0.00,,SKC,0.00,VWS V14.01,2013-08-06 16:45:00,
2013-08-06 12:47:00,88.2,83.8,29.99,North,359,0.0,7.5,87,0.00,,SKC,0.00,VWS V14.01,2013-08-06 16:47:00,
2013-08-06 12:48:00,88.2,83.1,29.99,North,359,0.0,7.5,85,0.00,,SKC,0.00,VWS V14.01,2013-08-06 16:48:00,
2013-08-06 12:49:00,88.2,83.1,29.99,North,359,0.0,7.5,85,0.00,,SKC,0.00,VWS V14.01,2013-08-06 16:49:00,
2013-08-06 12:51:00,88.3,83.3,29.99,North,359,0.0,7.5,85,0.00,,SKC,0.00,VWS V14.01,2013-08-06 16:51:00,
2013-08-06 12:52:00,88.3,83.3,29.99,North,359,0.0,7.5,85,0.00,,SKC,0.00,VWS V14.01,2013-08-06 16:52:00,
2013-08-06 12:53:00,88.5,83.0,29.99,North,359,0.0,7.5,84,0.00,,SKC,0.00,VWS V14.01,2013-08-06 16:53:00,
2013-08-06 12:54:00,88.4,82.5,29.99,North,359,0.0,7.5,83,0.00,,SKC,0.00,VWS V14.01,2013-08-06 16:54:00,
2013-08-06 12:56:00,88.6,82.1,29.99,North,359,0.0,7.5,81,0.00,,SKC,0.00,VWS V14.01,2013-08-06 16:56:00,
2013-08-06 12:57:00,88.8,81.9,29.99,North,359,0.0,7.5,81,0.00,,SKC,0.00,VWS V14.01,2013-08-06 16:57:00,
2013-08-06 12:58:00,89.0,82.2,29.99,North,359,0.0,7.5,80,0.00,,SKC,0.00,VWS V14.01,2013-08-06 16:58:00,
2013-08-06 12:59:00,89.2,82.3,29.98,North,359,0.0,7.5,80,0.00,,SKC,0.00,VWS V14.01,2013-08-06 16:59:00,
2013-08-06 13:01:00,89.3,82.5,29.98,North,359,0.0,7.5,80,0.00,,SKC,0.00,VWS V14.01,2013-08-06 17:01:00,
2013-08-06 13:02:00,89.6,82.2,29.99,North,359,0.0,7.5,79,0.00,,SKC,0.00,VWS V14.01,2013-08-06 17:02:00,
2013-08-06 13:04:00,89.6,81.8,29.99,North,359,0.0,7.5,78,0.00,,SKC,0.00,VWS V14.01,2013-08-06 17:04:00,
2013-08-06 13:05:00,89.5,81.7,29.99,North,359,0.0,7.5,78,0.00,,SKC,0.00,VWS V14.01,2013-08-06 17:05:00,
2013-08-06 13:06:00,89.6,81.8,29.99,North,359,0.0,7.5,78,0.00,,SKC,0.00,VWS V14.01,2013-08-06 17:06:00,
2013-08-06 13:07:00,89.6,82.0,29.98,North,359,0.0,7.5,78,0.00,,SKC,0.00,VWS V14.01,2013-08-06 17:07:00,
2013-08-06 13:09:00,89.6,81.8,29.98,North,359,0.0,7.5,78,0.00,,SKC,0.00,VWS V14.01,2013-08-06 17:09:00,
2013-08-06 13:10:00,89.8,82.3,29.98,North,359,0.0,7.5,79,0.00,,SKC,0.00,VWS V14.01,2013-08-06 17:10:00,
2013-08-06 13:11:00,89.8,82.4,29.98,North,359,0.0,7.5,79,0.00,,SKC,0.00,VWS V14.01,2013-08-06 17:11:00,
2013-08-06 13:12:00,89.8,82.2,29.97,North,359,0.0,7.5,78,0.00,,SKC,0.00,VWS V14.01,2013-08-06 17:12:00,
2013-08-06 13:15:00,90.0,82.3,29.98,North,359,0.0,7.5,78,0.00,,SKC,0.00,VWS V14.01,2013-08-06 17:15:00,
2013-08-06 13:16:00,90.2,82.5,29.98,North,359,0.0,7.5,78,0.00,,SKC,0.00,VWS V14.01,2013-08-06 17:16:00,
2013-08-06 13:17:00,90.3,81.6,29.98,North,359,0.0,7.5,76,0.00,,SKC,0.00,VWS V14.01,2013-08-06 17:17:00,
2013-08-06 13:20:00,90.2,81.1,29.98,North,359,0.0,7.5,75,0.00,,SKC,0.00,VWS V14.01,2013-08-06 17:20:00,
2013-08-06 13:21:00,90.2,81.4,29.98,North,359,0.0,7.5,75,0.00,,SKC,0.00,VWS V14.01,2013-08-06 17:21:00,
2013-08-06 13:22:00,90.2,81.7,29.98,North,359,0.0,7.5,76,0.00,,SKC,0.00,VWS V14.01,2013-08-06 17:22:00,
2013-08-06 13:25:00,90.3,82.4,29.98,North,359,0.0,7.5,78,0.00,,SKC,0.00,VWS V14.01,2013-08-06 17:25:00,
2013-08-06 13:26:00,90.3,82.2,29.98,North,359,0.0,7.5,77,0.00,,SKC,0.00,VWS V14.01,2013-08-06 17:26:00,
2013-08-06 13:28:00,90.2,82.4,29.98,North,359,0.0,7.5,78,0.00,,SKC,0.00,VWS V14.01,2013-08-06 17:28:00,
2013-08-06 13:30:00,89.9,82.9,29.98,North,359,0.0,7.5,80,0.00,,SKC,0.00,VWS V14.01,2013-08-06 17:30:00,
2013-08-06 13:31:00,89.7,83.1,29.98,North,359,0.0,7.5,81,0.00,,SKC,0.00,VWS V14.01,2013-08-06 17:31:00,
2013-08-06 13:33:00,89.2,83.1,29.98,North,359,0.0,7.5,82,0.00,,SKC,0.00,VWS V14.01,2013-08-06 17:33:00,
2013-08-06 13:35:00,88.8,83.1,29.98,North,359,0.0,7.5,83,0.00,,SKC,0.00,VWS V14.01,2013-08-06 17:35:00,
2013-08-06 13:36:00,88.7,83.0,29.98,North,359,0.0,7.5,83,0.00,,SKC,0.00,VWS V14.01,2013-08-06 17:36:00,
2013-08-06 13:37:00,88.5,82.8,29.98,North,359,0.0,7.5,83,0.00,,SKC,0.00,VWS V14.01,2013-08-06 17:37:00,
2013-08-06 13:38:00,88.3,82.8,29.97,North,359,0.0,7.5,84,0.00,,SKC,0.00,VWS V14.01,2013-08-06 17:38:00,
2013-08-06 13:40:00,88.1,83.5,29.97,North,359,0.0,7.5,86,0.00,,SKC,0.00,VWS V14.01,2013-08-06 17:40:00,
2013-08-06 13:41:00,88.0,83.4,29.97,North,359,0.0,7.5,86,0.00,,SKC,0.00,VWS V14.01,2013-08-06 17:41:00,
2013-08-06 13:43:00,88.0,83.9,29.97,North,359,0.0,7.5,88,0.00,,SKC,0.00,VWS V14.01,2013-08-06 17:43:00,
2013-08-06 13:45:00,88.2,83.9,29.97,North,359,0.0,7.5,87,0.00,,SKC,0.00,VWS V14.01,2013-08-06 17:45:00,
2013-08-06 13:46:00,88.2,83.8,29.97,North,359,0.0,7.5,87,0.00,,SKC,0.00,VWS V14.01,2013-08-06 17:46:00,
2013-08-06 13:47:00,88.1,83.0,29.97,North,359,0.0,7.5,85,0.00,,SKC,0.00,VWS V14.01,2013-08-06 17:47:00,
2013-08-06 13:48:00,88.2,83.4,29.97,North,359,0.0,7.5,86,0.00,,SKC,0.00,VWS V14.01,2013-08-06 17:48:00,
2013-08-06 13:50:00,88.3,83.9,29.97,North,359,0.0,7.5,87,0.00,,SKC,0.00,VWS V14.01,2013-08-06 17:50:00,
2013-08-06 13:51:00,88.4,83.9,29.97,North,359,0.0,7.5,87,0.00,,SKC,0.00,VWS V14.01,2013-08-06 17:51:00,
2013-08-06 13:52:00,88.5,83.4,29.97,North,359,0.0,7.5,85,0.00,,SKC,0.00,VWS V14.01,2013-08-06 17:52:00,
2013-08-06 13:53:00,88.4,83.0,29.97,North,359,0.0,7.5,84,0.00,,SKC,0.00,VWS V14.01,2013-08-06 17:53:00,
2013-08-06 13:55:00,88.2,83.6,29.97,North,359,0.0,7.5,86,0.00,,SKC,0.00,VWS V14.01,2013-08-06 17:55:00,
2013-08-06 13:56:00,88.3,83.9,29.97,North,359,0.0,7.5,87,0.00,,SKC,0.00,VWS V14.01,2013-08-06 17:56:00,
2013-08-06 13:57:00,88.2,83.0,29.97,North,359,0.0,7.5,85,0.00,,SKC,0.00,VWS V14.01,2013-08-06 17:57:00,
2013-08-06 13:58:00,88.3,83.5,29.97,North,359,0.0,7.5,86,0.00,,SKC,0.00,VWS V14.01,2013-08-06 17:58:00,
2013-08-06 14:00:00,88.4,83.9,29.97,North,359,0.0,7.5,86,0.00,,SKC,0.00,VWS V14.01,2013-08-06 18:00:00,
2013-08-06 14:01:00,88.5,83.8,29.97,North,359,0.0,7.5,86,0.00,,SKC,0.00,VWS V14.01,2013-08-06 18:01:00,
2013-08-06 14:02:00,88.4,83.4,29.97,North,359,0.0,7.5,85,0.00,,SKC,0.00,VWS V14.01,2013-08-06 18:02:00,
2013-08-06 14:03:00,88.4,83.8,29.97,North,359,0.0,7.5,86,0.00,,SKC,0.00,VWS V14.01,2013-08-06 18:03:00,
2013-08-06 14:06:00,88.2,83.2,29.97,SW,226,0.0,7.5,85,0.00,,SKC,0.00,VWS V14.01,2013-08-06 18:06:00,
2013-08-06 14:07:00,88.2,82.9,29.97,SW,226,0.0,7.5,84,0.00,,SKC,0.00,VWS V14.01,2013-08-06 18:07:00,
2013-08-06 14:08:00,88.0,82.8,29.97,SW,226,0.0,7.5,85,0.00,,SKC,0.00,VWS V14.01,2013-08-06 18:08:00,
2013-08-06 14:11:00,88.1,83.4,29.97,SW,226,0.0,7.5,86,0.00,,SKC,0.00,VWS V14.01,2013-08-06 18:11:00,
2013-08-06 14:12:00,88.2,83.9,29.97,SW,219,0.0,7.5,87,0.00,,SKC,0.00,VWS V14.01,2013-08-06 18:12:00,
2013-08-06 14:13:00,88.1,83.5,29.97,SW,219,0.0,7.5,86,0.00,,SKC,0.00,VWS V14.01,2013-08-06 18:13:00,
2013-08-06 14:16:00,87.9,83.2,29.96,SW,219,0.0,7.5,86,0.00,,SKC,0.00,VWS V14.01,2013-08-06 18:16:00,
2013-08-06 14:17:00,87.7,83.3,29.97,SW,219,0.0,7.5,87,0.00,,SKC,0.00,VWS V14.01,2013-08-06 18:17:00,
2013-08-06 14:18:00,87.6,83.7,29.97,SW,219,0.0,7.5,88,0.00,,SKC,0.00,VWS V14.01,2013-08-06 18:18:00,
2013-08-06 14:21:00,87.6,83.8,29.97,SW,219,0.0,7.5,88,0.00,,SKC,0.00,VWS V14.01,2013-08-06 18:21:00,
2013-08-06 14:22:00,87.6,83.9,29.97,SW,219,0.0,7.5,89,0.00,,SKC,0.00,VWS V14.01,2013-08-06 18:22:00,
2013-08-06 14:23:00,87.6,83.2,29.97,SW,219,0.0,7.5,87,0.00,,SKC,0.00,VWS V14.01,2013-08-06 18:23:00,
2013-08-06 14:24:00,87.6,83.7,29.97,SW,219,0.0,7.5,88,0.00,,SKC,0.00,VWS V14.01,2013-08-06 18:24:00,
2013-08-06 14:26:00,87.6,84.0,29.97,SW,232,0.0,7.5,89,0.00,,SKC,0.00,VWS V14.01,2013-08-06 18:26:00,
2013-08-06 14:27:00,87.7,83.5,29.97,SW,232,0.0,7.5,88,0.00,,SKC,0.00,VWS V14.01,2013-08-06 18:27:00,
2013-08-06 14:28:00,87.7,83.6,29.97,SW,232,0.0,7.5,88,0.00,,SKC,0.00,VWS V14.01,2013-08-06 18:28:00,
2013-08-06 14:29:00,87.7,83.9,29.97,SW,232,0.0,7.5,89,0.00,,SKC,0.00,VWS V14.01,2013-08-06 18:29:00,
2013-08-06 14:31:00,87.9,83.8,29.97,SW,232,0.0,7.5,88,0.00,,SKC,0.00,VWS V14.01,2013-08-06 18:31:00,
2013-08-06 14:32:00,87.8,83.3,29.97,SW,232,0.0,7.5,86,0.00,,SKC,0.00,VWS V14.01,2013-08-06 18:32:00,
2013-08-06 14:33:00,87.8,83.4,29.97,SW,232,0.0,7.5,87,0.00,,SKC,0.00,VWS V14.01,2013-08-06 18:33:00,
2013-08-06 14:34:00,87.8,83.8,29.97,SW,232,0.0,7.5,88,0.00,,SKC,0.00,VWS V14.01,2013-08-06 18:34:00,
2013-08-06 14:36:00,87.9,83.6,29.97,SW,232,0.0,7.5,87,0.00,,SKC,0.00,VWS V14.01,2013-08-06 18:36:00,
2013-08-06 14:37:00,87.8,82.9,29.97,SW,232,0.0,7.5,85,0.00,,SKC,0.00,VWS V14.01,2013-08-06 18:37:00,
2013-08-06 14:38:00,87.9,83.1,29.97,SW,232,0.0,7.5,86,0.00,,SKC,0.00,VWS V14.01,2013-08-06 18:38:00,
2013-08-06 14:39:00,87.8,83.6,29.97,SW,232,0.0,7.5,88,0.00,,SKC,0.00,VWS V14.01,2013-08-06 18:39:00,
2013-08-06 14:41:00,88.0,84.2,29.97,SW,232,0.0,7.5,89,0.00,,SKC,0.00,VWS V14.01,2013-08-06 18:41:00,
2013-08-06 14:42:00,88.1,84.1,29.97,SW,232,0.0,7.5,88,0.00,,SKC,0.00,VWS V14.01,2013-08-06 18:42:00,
2013-08-06 14:43:00,88.0,84.1,29.97,SW,232,0.0,7.5,88,0.00,,SKC,0.00,VWS V14.01,2013-08-06 18:43:00,
2013-08-06 14:44:00,88.0,83.9,29.97,SW,232,0.0,7.5,88,0.00,,SKC,0.00,VWS V14.01,2013-08-06 18:44:00,
2013-08-06 14:47:00,88.0,84.2,29.97,SW,232,0.0,7.5,89,0.00,,SKC,0.00,VWS V14.01,2013-08-06 18:47:00,
2013-08-06 14:48:00,88.1,84.2,29.97,SW,232,0.0,7.5,88,0.00,,SKC,0.00,VWS V14.01,2013-08-06 18:48:00,
2013-08-06 14:49:00,88.2,84.2,29.97,SW,232,0.0,7.5,88,0.00,,SKC,0.00,VWS V14.01,2013-08-06 18:49:00,
2013-08-06 14:52:00,88.0,83.4,29.97,SW,232,0.0,7.5,86,0.00,,SKC,0.00,VWS V14.01,2013-08-06 18:52:00,
2013-08-06 14:53:00,88.0,83.8,29.97,SW,232,0.0,7.5,87,0.00,,SKC,0.00,VWS V14.01,2013-08-06 18:53:00,
2013-08-06 14:54:00,88.0,83.7,29.97,SW,232,0.0,7.5,87,0.00,,SKC,0.00,VWS V14.01,2013-08-06 18:54:00,
2013-08-06 14:57:00,87.9,83.5,29.97,SW,232,0.0,7.5,87,0.00,,SKC,0.00,VWS V14.01,2013-08-06 18:57:00,
2013-08-06 14:58:00,87.8,83.7,29.96,SW,232,0.0,7.5,88,0.00,,SKC,0.00,VWS V14.01,2013-08-06 18:58:00,
2013-08-06 14:59:00,87.9,83.5,29.96,SW,232,0.0,7.5,87,0.00,,SKC,0.00,VWS V14.01,2013-08-06 18:59:00,
2013-08-06 15:02:00,87.9,83.3,29.97,SW,232,0.0,7.5,86,0.00,,SKC,0.00,VWS V14.01,2013-08-06 19:02:00,
2013-08-06 15:03:00,87.8,83.1,29.97,SW,232,0.0,7.5,86,0.00,,SKC,0.00,VWS V14.01,2013-08-06 19:03:00,
2013-08-06 15:04:00,87.9,83.0,29.97,SW,232,0.0,7.5,86,0.00,,SKC,0.00,VWS V14.01,2013-08-06 19:04:00,
2013-08-06 15:07:00,87.8,83.6,29.96,SW,232,0.0,7.5,87,0.00,,SKC,0.00,VWS V14.01,2013-08-06 19:07:00,
2013-08-06 15:08:00,87.8,83.4,29.96,SW,232,0.0,7.5,87,0.00,,SKC,0.00,VWS V14.01,2013-08-06 19:08:00,
2013-08-06 15:09:00,87.9,83.7,29.96,SW,232,0.0,7.5,87,0.00,,SKC,0.00,VWS V14.01,2013-08-06 19:09:00,
2013-08-06 15:13:00,87.9,83.8,29.96,SW,232,0.0,7.5,88,0.00,,SKC,0.00,VWS V14.01,2013-08-06 19:13:00,
2013-08-06 15:14:00,88.0,83.6,29.96,SW,232,0.0,7.5,87,0.00,,SKC,0.00,VWS V14.01,2013-08-06 19:14:00,
2013-08-06 15:18:00,88.0,83.6,29.96,SW,232,0.0,7.5,87,0.00,,SKC,0.00,VWS V14.01,2013-08-06 19:18:00,
2013-08-06 15:19:00,88.0,83.9,29.96,SW,232,0.0,7.5,88,0.00,,SKC,0.00,VWS V14.01,2013-08-06 19:19:00,
2013-08-06 15:23:00,88.1,84.2,29.96,SW,232,0.0,7.5,88,0.00,,SKC,0.00,VWS V14.01,2013-08-06 19:23:00,
2013-08-06 15:24:00,88.3,84.2,29.96,SW,232,0.0,7.5,88,0.00,,SKC,0.00,VWS V14.01,2013-08-06 19:24:00,
2013-08-06 15:28:00,89.2,84.7,29.95,South,172,0.0,7.5,87,0.00,,SKC,0.00,VWS V14.01,2013-08-06 19:28:00,
2013-08-06 15:29:00,89.2,84.1,29.95,SW,236,0.0,7.5,85,0.00,,SKC,0.00,VWS V14.01,2013-08-06 19:29:00,
2013-08-06 15:30:00,89.4,84.5,29.95,SW,218,0.0,7.5,86,0.00,,SKC,0.00,VWS V14.01,2013-08-06 19:30:00,
2013-08-06 15:33:00,89.3,83.5,29.95,North,359,0.0,7.5,83,0.00,,SKC,0.00,VWS V14.01,2013-08-06 19:33:00,
2013-08-06 15:34:00,89.0,83.1,29.95,North,359,0.0,7.5,83,0.00,,SKC,0.00,VWS V14.01,2013-08-06 19:34:00,
2013-08-06 15:35:00,88.7,83.2,29.95,North,359,0.0,7.5,84,0.00,,SKC,0.00,VWS V14.01,2013-08-06 19:35:00,
2013-08-06 15:37:00,88.6,84.8,29.94,North,359,8.4,8.4,89,0.00,,SKC,0.00,VWS V14.01,2013-08-06 19:37:00,
2013-08-06 15:38:00,88.7,84.1,29.95,North,359,0.0,7.5,86,0.00,,SKC,0.00,VWS V14.01,2013-08-06 19:38:00,
2013-08-06 15:39:00,88.7,83.7,29.95,North,359,0.0,7.5,85,0.00,,SKC,0.00,VWS V14.01,2013-08-06 19:39:00,
2013-08-06 15:40:00,88.5,83.4,29.95,North,359,0.0,7.5,85,0.00,,SKC,0.00,VWS V14.01,2013-08-06 19:40:00,
2013-08-06 15:41:00,88.5,83.3,29.95,North,359,0.0,7.5,85,0.00,,SKC,0.00,VWS V14.01,2013-08-06 19:41:00,
2013-08-06 15:44:00,88.6,84.3,29.95,North,359,0.0,7.5,87,0.00,,SKC,0.00,VWS V14.01,2013-08-06 19:44:00,
2013-08-06 15:46:00,88.6,84.0,29.95,North,359,0.0,7.5,86,0.00,,SKC,0.00,VWS V14.01,2013-08-06 19:46:00,
2013-08-06 15:49:00,88.3,82.8,29.95,North,359,0.2,7.5,84,0.00,,SKC,0.00,VWS V14.01,2013-08-06 19:49:00,
2013-08-06 15:51:00,88.1,83.2,29.95,North,359,0.0,7.5,86,0.00,,SKC,0.00,VWS V14.01,2013-08-06 19:51:00,
2013-08-06 15:54:00,88.3,84.8,29.95,North,359,0.0,7.5,90,0.00,,SKC,0.00,VWS V14.01,2013-08-06 19:54:00,
2013-08-06 15:55:00,88.4,85.1,29.95,North,359,0.0,7.5,90,0.00,,SKC,0.00,VWS V14.01,2013-08-06 19:55:00,
2013-08-06 15:56:00,88.4,85.0,29.94,North,359,0.0,7.5,90,0.00,,SKC,0.00,VWS V14.01,2013-08-06 19:56:00,
2013-08-06 15:57:00,88.2,83.8,29.95,North,359,0.0,7.5,87,0.00,,SKC,0.00,VWS V14.01,2013-08-06 19:57:00,
2013-08-06 15:59:00,88.1,83.9,29.95,North,359,0.0,7.5,87,0.00,,SKC,0.00,VWS V14.01,2013-08-06 19:59:00,
2013-08-06 16:00:00,88.1,83.5,29.95,North,359,0.0,7.5,86,0.00,,SKC,0.00,VWS V14.01,2013-08-06 20:00:00,
2013-08-06 16:01:00,88.2,84.1,29.95,North,359,0.0,7.5,88,0.00,,SKC,0.00,VWS V14.01,2013-08-06 20:01:00,
2013-08-06 16:02:00,88.2,84.4,29.95,North,359,0.0,7.5,89,0.00,,SKC,0.00,VWS V14.01,2013-08-06 20:02:00,
2013-08-06 16:04:00,88.4,85.2,29.94,North,359,0.0,7.5,90,0.00,,SKC,0.00,VWS V14.01,2013-08-06 20:04:00,
2013-08-06 16:05:00,88.4,85.2,29.94,North,359,0.0,7.5,90,0.00,,SKC,0.00,VWS V14.01,2013-08-06 20:05:00,
2013-08-06 16:06:00,88.3,84.8,29.95,North,359,0.0,7.5,89,0.00,,SKC,0.00,VWS V14.01,2013-08-06 20:06:00,
2013-08-06 16:07:00,88.2,84.4,29.95,North,359,0.0,7.5,89,0.00,,SKC,0.00,VWS V14.01,2013-08-06 20:07:00,
2013-08-06 16:09:00,88.2,84.6,29.95,North,359,0.0,7.5,89,0.00,,SKC,0.00,VWS V14.01,2013-08-06 20:09:00,
2013-08-06 16:10:00,88.3,84.8,29.95,North,359,0.3,7.5,89,0.00,,SKC,0.00,VWS V14.01,2013-08-06 20:10:00,
2013-08-06 16:11:00,88.2,84.7,29.94,North,359,0.0,7.5,90,0.00,,SKC,0.00,VWS V14.01,2013-08-06 20:11:00,
2013-08-06 16:12:00,88.3,84.9,29.94,North,359,0.0,7.5,90,0.00,,SKC,0.00,VWS V14.01,2013-08-06 20:12:00,
2013-08-06 16:14:00,88.4,85.1,29.94,North,359,0.0,7.5,90,0.00,,SKC,0.00,VWS V14.01,2013-08-06 20:14:00,
2013-08-06 16:15:00,88.4,85.2,29.94,North,359,0.0,7.5,90,0.00,,SKC,0.00,VWS V14.01,2013-08-06 20:15:00,
2013-08-06 16:17:00,88.5,85.1,29.94,North,359,0.0,7.5,90,0.00,,SKC,0.00,VWS V14.01,2013-08-06 20:17:00,
2013-08-06 16:20:00,88.7,85.3,29.94,North,359,0.0,7.5,90,0.00,,SKC,0.00,VWS V14.01,2013-08-06 20:20:00,
2013-08-06 16:22:00,88.7,85.1,29.94,North,359,0.0,7.5,89,0.00,,SKC,0.00,VWS V14.01,2013-08-06 20:22:00,
2013-08-06 16:25:00,88.7,84.4,29.94,North,359,0.0,7.5,87,0.00,,SKC,0.00,VWS V14.01,2013-08-06 20:25:00,
2013-08-06 16:27:00,88.8,83.8,29.94,North,359,0.0,7.5,85,0.00,,SKC,0.00,VWS V14.01,2013-08-06 20:27:00,
2013-08-06 16:30:00,88.6,83.8,29.94,North,359,0.0,7.5,86,0.00,,SKC,0.00,VWS V14.01,2013-08-06 20:30:00,
2013-08-06 16:32:00,88.6,84.6,29.94,North,359,0.0,8.4,88,0.00,,SKC,0.00,VWS V14.01,2013-08-06 20:32:00,
2013-08-06 16:35:00,88.7,84.0,29.94,SW,226,0.0,9.8,86,0.00,,SKC,0.00,VWS V14.01,2013-08-06 20:35:00,
2013-08-06 16:36:00,88.7,84.3,29.94,North,359,0.0,9.8,87,0.00,,SKC,0.00,VWS V14.01,2013-08-06 20:36:00,
2013-08-06 16:38:00,88.5,83.8,29.94,North,359,0.0,9.8,86,0.00,,SKC,0.00,VWS V14.01,2013-08-06 20:38:00,
2013-08-06 16:40:00,88.5,84.3,29.94,North,359,0.0,9.8,87,0.00,,SKC,0.00,VWS V14.01,2013-08-06 20:40:00,
2013-08-06 16:41:00,88.4,83.9,29.94,North,359,0.0,9.8,87,0.00,,SKC,0.00,VWS V14.01,2013-08-06 20:41:00,
2013-08-06 16:43:00,88.6,84.3,29.94,North,359,0.0,9.8,87,0.00,,SKC,0.00,VWS V14.01,2013-08-06 20:43:00,
2013-08-06 16:45:00,88.6,83.8,29.94,North,359,0.0,9.8,86,0.00,,SKC,0.00,VWS V14.01,2013-08-06 20:45:00,
2013-08-06 16:46:00,88.7,83.9,29.94,North,359,0.0,9.8,86,0.00,,SKC,0.00,VWS V14.01,2013-08-06 20:46:00,
2013-08-06 16:48:00,88.5,83.4,29.94,North,359,0.0,9.8,85,0.00,,SKC,0.00,VWS V14.01,2013-08-06 20:48:00,
2013-08-06 16:50:00,88.6,84.0,29.93,North,359,0.0,9.8,86,0.00,,SKC,0.00,VWS V14.01,2013-08-06 20:50:00,
2013-08-06 16:51:00,88.6,84.1,29.93,North,359,0.0,9.8,87,0.00,,SKC,0.00,VWS V14.01,2013-08-06 20:51:00,
2013-08-06 16:53:00,88.6,83.6,29.93,North,359,0.0,9.8,85,0.00,,SKC,0.00,VWS V14.01,2013-08-06 20:53:00,
2013-08-06 16:55:00,88.7,83.9,29.93,North,359,0.0,9.8,86,0.00,,SKC,0.00,VWS V14.01,2013-08-06 20:55:00,
2013-08-06 16:56:00,88.6,83.8,29.93,North,359,0.0,9.8,86,0.00,,SKC,0.00,VWS V14.01,2013-08-06 20:56:00,
2013-08-06 16:58:00,88.6,83.8,29.93,North,359,0.0,9.8,86,0.00,,SKC,0.00,VWS V14.01,2013-08-06 20:58:00,
2013-08-06 17:01:00,88.9,84.7,29.93,North,359,0.0,9.8,88,0.00,,SKC,0.00,VWS V14.01,2013-08-06 21:01:00,
2013-08-06 17:03:00,89.2,84.5,29.93,North,359,0.8,9.8,86,0.00,,SKC,0.00,VWS V14.01,2013-08-06 21:03:00,
2013-08-06 17:06:00,89.0,83.8,29.93,North,359,0.0,9.8,85,0.00,,SKC,0.00,VWS V14.01,2013-08-06 21:06:00,
2013-08-06 17:07:00,89.1,84.0,29.93,North,359,0.0,9.8,85,0.00,,SKC,0.00,VWS V14.01,2013-08-06 21:07:00,
2013-08-06 17:09:00,89.0,83.9,29.93,North,359,0.0,9.8,85,0.00,,SKC,0.00,VWS V14.01,2013-08-06 21:09:00,
2013-08-06 17:11:00,88.9,84.1,29.93,North,359,0.0,9.8,86,0.00,,SKC,0.00,VWS V14.01,2013-08-06 21:11:00,
2013-08-06 17:12:00,88.9,84.1,29.93,North,359,0.0,9.8,86,0.00,,SKC,0.00,VWS V14.01,2013-08-06 21:12:00,
2013-08-06 17:14:00,88.9,83.9,29.92,North,359,0.0,9.8,85,0.00,,SKC,0.00,VWS V14.01,2013-08-06 21:14:00,
2013-08-06 17:16:00,88.8,83.6,29.93,North,359,0.0,9.8,85,0.00,,SKC,0.00,VWS V14.01,2013-08-06 21:16:00,
2013-08-06 17:17:00,88.8,83.8,29.92,North,359,0.0,9.8,85,0.00,,SKC,0.00,VWS V14.01,2013-08-06 21:17:00,
2013-08-06 17:19:00,88.8,84.0,29.93,North,359,0.0,9.8,86,0.00,,SKC,0.00,VWS V14.01,2013-08-06 21:19:00,
2013-08-06 17:21:00,88.9,84.2,29.93,North,359,0.0,9.8,86,0.00,,SKC,0.00,VWS V14.01,2013-08-06 21:21:00,
2013-08-06 17:22:00,88.8,83.6,29.93,North,359,0.0,9.8,85,0.00,,SKC,0.00,VWS V14.01,2013-08-06 21:22:00,
2013-08-06 17:24:00,88.9,84.3,29.92,North,359,0.0,9.8,86,0.00,,SKC,0.00,VWS V14.01,2013-08-06 21:24:00,
2013-08-06 17:26:00,88.9,83.7,29.93,North,359,0.0,9.8,85,0.00,,SKC,0.00,VWS V14.01,2013-08-06 21:26:00,
2013-08-06 17:27:00,89.0,83.9,29.93,North,359,0.0,9.8,85,0.00,,SKC,0.00,VWS V14.01,2013-08-06 21:27:00,
2013-08-06 17:28:00,89.0,84.0,29.93,North,359,0.0,9.8,85,0.00,,SKC,0.00,VWS V14.01,2013-08-06 21:28:00,
2013-08-06 17:29:00,89.1,84.2,29.92,North,359,0.0,9.8,85,0.00,,SKC,0.00,VWS V14.01,2013-08-06 21:29:00,
2013-08-06 17:31:00,89.2,83.7,29.92,North,359,0.0,9.8,84,0.00,,SKC,0.00,VWS V14.01,2013-08-06 21:31:00,
2013-08-06 17:32:00,89.2,83.7,29.92,North,359,0.0,9.8,84,0.00,,SKC,0.00,VWS V14.01,2013-08-06 21:32:00,
2013-08-06 17:33:00,89.1,83.6,29.92,North,359,0.0,9.8,84,0.00,,SKC,0.00,VWS V14.01,2013-08-06 21:33:00,
2013-08-06 17:34:00,89.2,83.9,29.92,SSW,212,0.2,9.8,85,0.00,,SKC,0.00,VWS V14.01,2013-08-06 21:34:00,
2013-08-06 17:36:00,89.3,83.1,29.92,North,359,0.0,9.8,82,0.00,,SKC,0.00,VWS V14.01,2013-08-06 21:36:00,
2013-08-06 17:37:00,89.2,83.0,29.92,North,359,0.0,9.8,82,0.00,,SKC,0.00,VWS V14.01,2013-08-06 21:37:00,
2013-08-06 17:38:00,89.1,82.4,29.92,North,359,0.0,9.8,81,0.00,,SKC,0.00,VWS V14.01,2013-08-06 21:38:00,
2013-08-06 17:39:00,88.9,82.3,29.92,North,359,0.0,9.8,81,0.00,,SKC,0.00,VWS V14.01,2013-08-06 21:39:00,
2013-08-06 17:41:00,88.9,83.1,29.92,North,359,0.0,9.8,83,0.00,,SKC,0.00,VWS V14.01,2013-08-06 21:41:00,
2013-08-06 17:42:00,89.1,83.6,29.92,North,359,0.0,9.8,84,0.00,,SKC,0.00,VWS V14.01,2013-08-06 21:42:00,
2013-08-06 17:43:00,89.3,83.8,29.92,North,359,0.0,9.8,84,0.00,,SKC,0.00,VWS V14.01,2013-08-06 21:43:00,
2013-08-06 17:44:00,89.4,83.7,29.92,North,359,0.3,9.8,83,0.00,,SKC,0.00,VWS V14.01,2013-08-06 21:44:00,
2013-08-06 17:47:00,89.3,82.7,29.92,North,359,0.0,9.8,81,0.00,,SKC,0.00,VWS V14.01,2013-08-06 21:47:00,
2013-08-06 17:48:00,89.3,83.5,29.92,North,359,0.0,9.8,83,0.00,,SKC,0.00,VWS V14.01,2013-08-06 21:48:00,
2013-08-06 17:49:00,89.2,82.9,29.92,North,359,0.0,9.8,82,0.00,,SKC,0.00,VWS V14.01,2013-08-06 21:49:00,
2013-08-06 17:52:00,89.2,82.9,29.92,North,359,0.0,9.8,82,0.00,,SKC,0.00,VWS V14.01,2013-08-06 21:52:00,
2013-08-06 17:53:00,89.2,82.6,29.92,North,359,0.0,9.8,81,0.00,,SKC,0.00,VWS V14.01,2013-08-06 21:53:00,
2013-08-06 17:55:00,89.2,82.7,29.92,North,359,0.0,9.8,81,0.00,,SKC,0.00,VWS V14.01,2013-08-06 21:55:00,
2013-08-06 17:57:00,89.4,83.4,29.91,North,359,0.0,9.8,83,0.00,,SKC,0.00,VWS V14.01,2013-08-06 21:57:00,
2013-08-06 17:58:00,89.2,82.8,29.91,North,359,0.0,9.8,82,0.00,,SKC,0.00,VWS V14.01,2013-08-06 21:58:00,
2013-08-06 18:00:00,89.2,83.1,29.91,North,359,0.0,9.8,82,0.00,,SKC,0.00,VWS V14.01,2013-08-06 22:00:00,
2013-08-06 18:02:00,89.2,83.6,29.91,North,359,0.0,9.8,84,0.00,,SKC,0.00,VWS V14.01,2013-08-06 22:02:00,
2013-08-06 18:03:00,89.1,82.9,29.91,North,359,0.0,9.8,82,0.00,,SKC,0.00,VWS V14.01,2013-08-06 22:03:00,
2013-08-06 18:05:00,89.1,83.0,29.91,North,359,0.0,9.8,82,0.00,,SKC,0.00,VWS V14.01,2013-08-06 22:05:00,
2013-08-06 18:07:00,89.2,83.2,29.91,North,359,0.0,9.8,83,0.00,,SKC,0.00,VWS V14.01,2013-08-06 22:07:00,
2013-08-06 18:08:00,89.2,82.9,29.91,North,359,0.0,9.8,82,0.00,,SKC,0.00,VWS V14.01,2013-08-06 22:08:00,
2013-08-06 18:09:00,89.2,82.9,29.91,North,359,0.0,9.8,82,0.00,,SKC,0.00,VWS V14.01,2013-08-06 22:09:00,
2013-08-06 18:10:00,89.2,82.0,29.92,North,359,0.0,9.8,80,0.00,,SKC,0.00,VWS V14.01,2013-08-06 22:10:00,
2013-08-06 18:12:00,89.2,82.6,29.91,North,359,0.0,9.8,81,0.00,,SKC,0.00,VWS V14.01,2013-08-06 22:12:00,
2013-08-06 18:13:00,89.2,82.7,29.91,North,359,0.0,9.8,81,0.00,,SKC,0.00,VWS V14.01,2013-08-06 22:13:00,
2013-08-06 18:14:00,89.2,82.8,29.91,North,359,0.0,9.8,82,0.00,,SKC,0.00,VWS V14.01,2013-08-06 22:14:00,
2013-08-06 18:15:00,89.2,82.3,29.91,North,359,0.0,9.8,80,0.00,,SKC,0.00,VWS V14.01,2013-08-06 22:15:00,
2013-08-06 18:17:00,89.1,82.6,29.91,North,359,0.0,9.8,81,0.00,,SKC,0.00,VWS V14.01,2013-08-06 22:17:00,
2013-08-06 18:18:00,89.1,82.5,29.91,North,359,0.0,9.8,81,0.00,,SKC,0.00,VWS V14.01,2013-08-06 22:18:00,
2013-08-06 18:19:00,89.0,82.8,29.91,North,359,0.0,9.8,82,0.00,,SKC,0.00,VWS V14.01,2013-08-06 22:19:00,
2013-08-06 18:20:00,89.1,83.1,29.91,North,359,0.0,9.8,83,0.00,,SKC,0.00,VWS V14.01,2013-08-06 22:20:00,
2013-08-06 18:22:00,89.3,83.6,29.91,North,359,0.0,9.8,83,0.00,,SKC,0.00,VWS V14.01,2013-08-06 22:22:00,
2013-08-06 18:23:00,89.3,83.6,29.91,North,359,0.0,9.8,83,0.00,,SKC,0.00,VWS V14.01,2013-08-06 22:23:00,
2013-08-06 18:24:00,89.3,82.9,29.91,North,359,0.0,9.8,81,0.00,,SKC,0.00,VWS V14.01,2013-08-06 22:24:00,
2013-08-06 18:25:00,89.2,82.4,29.91,North,359,0.0,9.8,80,0.00,,SKC,0.00,VWS V14.01,2013-08-06 22:25:00,
2013-08-06 18:27:00,89.1,82.4,29.91,North,359,0.0,9.8,81,0.00,,SKC,0.00,VWS V14.01,2013-08-06 22:27:00,
2013-08-06 18:28:00,89.0,82.3,29.91,North,359,0.0,9.8,81,0.00,,SKC,0.00,VWS V14.01,2013-08-06 22:28:00,
2013-08-06 18:29:00,89.1,82.6,29.91,North,359,0.0,9.8,81,0.00,,SKC,0.00,VWS V14.01,2013-08-06 22:29:00,
2013-08-06 18:30:00,89.1,82.7,29.91,North,359,0.0,9.8,82,0.00,,SKC,0.00,VWS V14.01,2013-08-06 22:30:00,
2013-08-06 18:32:00,89.2,82.9,29.91,North,359,0.0,9.8,82,0.00,,SKC,0.00,VWS V14.01,2013-08-06 22:32:00,
2013-08-06 18:33:00,89.2,82.5,29.91,North,359,0.0,9.8,81,0.00,,SKC,0.00,VWS V14.01,2013-08-06 22:33:00,
2013-08-06 18:34:00,89.2,82.6,29.91,North,359,0.0,9.8,81,0.00,,SKC,0.00,VWS V14.01,2013-08-06 22:34:00,
2013-08-06 18:35:00,89.1,82.2,29.91,North,359,0.0,9.8,80,0.00,,SKC,0.00,VWS V14.01,2013-08-06 22:35:00,
2013-08-06 18:38:00,89.0,82.6,29.91,North,359,0.0,9.8,82,0.00,,SKC,0.00,VWS V14.01,2013-08-06 22:38:00,
2013-08-06 18:39:00,89.2,82.9,29.91,North,359,0.0,9.8,82,0.00,,SKC,0.00,VWS V14.01,2013-08-06 22:39:00,
2013-08-06 18:41:00,89.1,80.8,29.91,North,359,0.0,9.8,77,0.00,,SKC,0.00,VWS V14.01,2013-08-06 22:41:00,
2013-08-06 18:43:00,89.1,80.1,29.91,North,359,0.0,9.8,75,0.00,,SKC,0.00,VWS V14.01,2013-08-06 22:43:00,
2013-08-06 18:44:00,89.0,79.4,29.91,North,359,0.0,9.8,73,0.00,,SKC,0.00,VWS V14.01,2013-08-06 22:44:00,
2013-08-06 18:46:00,89.2,79.7,29.91,North,359,0.0,9.8,74,0.00,,SKC,0.00,VWS V14.01,2013-08-06 22:46:00,
2013-08-06 18:48:00,89.2,77.5,29.91,North,359,0.0,9.8,68,0.00,,SKC,0.00,VWS V14.01,2013-08-06 22:48:00,
2013-08-06 18:49:00,89.2,77.3,29.91,North,359,0.0,9.8,68,0.00,,SKC,0.00,VWS V14.01,2013-08-06 22:49:00,
2013-08-06 18:52:00,89.4,77.6,29.91,North,359,0.0,9.8,68,0.00,,SKC,0.00,VWS V14.01,2013-08-06 22:52:00,
2013-08-06 18:53:00,89.4,76.8,29.91,North,359,0.0,9.8,67,0.00,,SKC,0.00,VWS V14.01,2013-08-06 22:53:00,
2013-08-06 18:54:00,89.3,76.8,29.91,North,359,0.0,9.8,67,0.00,,SKC,0.00,VWS V14.01,2013-08-06 22:54:00,
2013-08-06 18:57:00,89.3,77.8,29.91,North,359,0.0,9.8,69,0.00,,SKC,0.00,VWS V14.01,2013-08-06 22:57:00,
2013-08-06 18:58:00,89.4,78.5,29.91,North,359,0.0,9.8,70,0.00,,SKC,0.00,VWS V14.01,2013-08-06 22:58:00,
2013-08-06 18:59:00,89.3,78.8,29.91,North,359,0.0,9.8,71,0.00,,SKC,0.00,VWS V14.01,2013-08-06 22:59:00,
2013-08-06 19:00:00,89.3,79.1,29.91,North,359,0.0,9.8,72,0.00,,SKC,0.00,VWS V14.01,2013-08-06 23:00:00,
2013-08-06 19:02:00,89.3,79.6,29.91,North,359,0.0,9.8,73,0.00,,SKC,0.00,VWS V14.01,2013-08-06 23:02:00,
2013-08-06 19:03:00,89.3,79.8,29.91,North,359,0.0,9.8,74,0.00,,SKC,0.00,VWS V14.01,2013-08-06 23:03:00,
2013-08-06 19:04:00,89.3,77.5,29.91,North,359,0.0,9.8,68,0.00,,SKC,0.00,VWS V14.01,2013-08-06 23:04:00,
2013-08-06 19:05:00,89.3,77.7,29.91,North,359,0.0,9.8,68,0.00,,SKC,0.00,VWS V14.01,2013-08-06 23:05:00,
2013-08-06 19:07:00,89.3,77.3,29.92,North,359,0.0,9.8,68,0.00,,SKC,0.00,VWS V14.01,2013-08-06 23:07:00,
2013-08-06 19:08:00,89.3,77.3,29.92,North,359,0.0,9.8,68,0.00,,SKC,0.00,VWS V14.01,2013-08-06 23:08:00,
2013-08-06 19:09:00,89.2,77.0,29.92,North,359,0.0,9.8,68,0.00,,SKC,0.00,VWS V14.01,2013-08-06 23:09:00,
2013-08-06 19:10:00,89.2,76.9,29.92,North,359,0.0,9.8,67,0.00,,SKC,0.00,VWS V14.01,2013-08-06 23:10:00,
2013-08-06 19:12:00,89.2,77.6,29.92,North,359,0.0,9.8,69,0.00,,SKC,0.00,VWS V14.01,2013-08-06 23:12:00,
2013-08-06 19:13:00,89.2,77.4,29.92,North,359,0.0,9.8,68,0.00,,SKC,0.00,VWS V14.01,2013-08-06 23:13:00,
2013-08-06 19:14:00,89.1,76.7,29.92,North,359,0.0,9.8,67,0.00,,SKC,0.00,VWS V14.01,2013-08-06 23:14:00,
2013-08-06 19:15:00,89.1,76.8,29.92,North,359,0.0,9.8,67,0.00,,SKC,0.00,VWS V14.01,2013-08-06 23:15:00,
2013-08-06 19:17:00,89.2,77.2,29.92,North,359,0.0,9.8,68,0.00,,SKC,0.00,VWS V14.01,2013-08-06 23:17:00,
2013-08-06 19:18:00,89.2,76.9,29.92,North,359,0.0,9.8,67,0.00,,SKC,0.00,VWS V14.01,2013-08-06 23:18:00,
2013-08-06 19:19:00,89.1,76.9,29.92,North,359,0.0,9.8,68,0.00,,SKC,0.00,VWS V14.01,2013-08-06 23:19:00,
2013-08-06 19:20:00,89.1,77.1,29.92,North,359,0.0,9.8,68,0.00,,SKC,0.00,VWS V14.01,2013-08-06 23:20:00,
2013-08-06 19:22:00,89.2,77.2,29.92,North,359,0.0,9.8,68,0.00,,SKC,0.00,VWS V14.01,2013-08-06 23:22:00,
2013-08-06 19:23:00,89.1,77.2,29.92,North,359,0.0,9.8,68,0.00,,SKC,0.00,VWS V14.01,2013-08-06 23:23:00,
2013-08-06 19:25:00,89.2,76.9,29.92,North,359,0.0,9.8,67,0.00,,SKC,0.00,VWS V14.01,2013-08-06 23:25:00,
2013-08-06 19:26:00,89.2,77.0,29.92,North,359,0.0,9.8,68,0.00,,SKC,0.00,VWS V14.01,2013-08-06 23:26:00,
2013-08-06 19:27:00,89.1,76.3,29.92,North,359,0.0,9.8,66,0.00,,SKC,0.00,VWS V14.01,2013-08-06 23:27:00,
2013-08-06 19:28:00,89.1,76.4,29.92,North,359,0.0,9.8,66,0.00,,SKC,0.00,VWS V14.01,2013-08-06 23:28:00,
2013-08-06 19:30:00,89.1,76.6,29.92,North,359,0.0,9.8,67,0.00,,SKC,0.00,VWS V14.01,2013-08-06 23:30:00,
2013-08-06 19:31:00,89.1,76.9,29.91,North,359,0.0,9.8,68,0.00,,SKC,0.00,VWS V14.01,2013-08-06 23:31:00,
2013-08-06 19:32:00,88.9,76.7,29.91,North,359,0.0,9.8,67,0.00,,SKC,0.00,VWS V14.01,2013-08-06 23:32:00,
2013-08-06 19:33:00,88.9,76.9,29.92,North,359,0.0,9.8,68,0.00,,SKC,0.00,VWS V14.01,2013-08-06 23:33:00,
2013-08-06 19:35:00,88.9,77.4,29.92,North,359,0.0,9.8,69,0.00,,SKC,0.00,VWS V14.01,2013-08-06 23:35:00,
2013-08-06 19:36:00,88.9,77.5,29.91,North,359,0.0,9.8,69,0.00,,SKC,0.00,VWS V14.01,2013-08-06 23:36:00,
2013-08-06 19:37:00,88.8,77.7,29.92,North,359,0.0,9.8,70,0.00,,SKC,0.00,VWS V14.01,2013-08-06 23:37:00,
2013-08-06 19:38:00,88.9,78.0,29.92,North,359,0.0,9.8,70,0.00,,SKC,0.00,VWS V14.01,2013-08-06 23:38:00,
2013-08-06 19:40:00,89.0,78.2,29.92,North,359,0.0,9.8,71,0.00,,SKC,0.00,VWS V14.01,2013-08-06 23:40:00,
2013-08-06 19:41:00,89.0,78.6,29.92,North,359,0.0,9.8,72,0.00,,SKC,0.00,VWS V14.01,2013-08-06 23:41:00,
2013-08-06 19:42:00,89.0,78.8,29.92,North,359,0.0,9.8,72,0.00,,SKC,0.00,VWS V14.01,2013-08-06 23:42:00,
2013-08-06 19:43:00,89.1,79.0,29.92,North,359,0.0,9.8,72,0.00,,SKC,0.00,VWS V14.01,2013-08-06 23:43:00,
2013-08-06 19:45:00,89.0,78.4,29.92,North,359,0.0,9.8,71,0.00,,SKC,0.00,VWS V14.01,2013-08-06 23:45:00,
2013-08-06 19:46:00,89.0,78.4,29.92,North,359,0.0,9.8,71,0.00,,SKC,0.00,VWS V14.01,2013-08-06 23:46:00,
2013-08-06 19:48:00,89.0,78.5,29.92,North,359,0.0,9.8,71,0.00,,SKC,0.00,VWS V14.01,2013-08-06 23:48:00,
2013-08-06 19:50:00,89.0,78.5,29.93,North,359,0.0,9.8,71,0.00,,SKC,0.00,VWS V14.01,2013-08-06 23:50:00,
2013-08-06 19:51:00,89.0,78.6,29.93,North,359,0.0,9.8,72,0.00,,SKC,0.00,VWS V14.01,2013-08-06 23:51:00,
2013-08-06 19:53:00,89.0,78.7,29.93,North,359,0.0,9.8,72,0.00,,SKC,0.00,VWS V14.01,2013-08-06 23:53:00,
2013-08-06 19:55:00,88.9,78.2,29.93,North,359,0.0,9.8,71,0.00,,SKC,0.00,VWS V14.01,2013-08-06 23:55:00,
2013-08-06 19:56:00,88.9,78.2,29.93,North,359,0.0,9.8,71,0.00,,SKC,0.00,VWS V14.01,2013-08-06 23:56:00,
2013-08-06 19:58:00,88.9,78.0,29.93,North,359,0.0,9.8,71,0.00,,SKC,0.00,VWS V14.01,2013-08-06 23:58:00,
2013-08-06 19:59:00,88.8,77.5,29.93,North,359,0.0,9.8,70,0.00,,SKC,0.00,VWS V14.01,2013-08-06 23:59:00,
2013-08-06 20:00:00,88.7,78.0,29.92,North,359,0.0,9.8,71,0.00,,SKC,0.00,VWS V14.01,2013-08-07 00:00:00,
2013-08-06 20:01:00,88.7,78.1,29.92,North,359,0.0,9.8,71,0.00,,SKC,0.00,VWS V14.01,2013-08-07 00:01:00,
2013-08-06 20:03:00,88.7,78.0,29.93,North,359,0.0,9.8,71,0.00,,SKC,0.00,VWS V14.01,2013-08-07 00:03:00,
2013-08-06 20:04:00,88.6,77.8,29.93,North,359,0.0,9.8,70,0.00,,SKC,0.00,VWS V14.01,2013-08-07 00:04:00,
2013-08-06 20:06:00,88.7,78.0,29.93,North,359,0.0,9.8,71,0.00,,SKC,0.00,VWS V14.01,2013-08-07 00:06:00,
2013-08-06 20:07:00,88.7,77.8,29.93,North,359,0.0,9.8,70,0.00,,SKC,0.00,VWS V14.01,2013-08-07 00:07:00,
2013-08-06 20:08:00,88.6,78.0,29.93,North,359,0.0,9.8,71,0.00,,SKC,0.00,VWS V14.01,2013-08-07 00:08:00,
2013-08-06 20:09:00,88.6,78.0,29.93,North,359,0.0,9.8,71,0.00,,SKC,0.00,VWS V14.01,2013-08-07 00:09:00,
2013-08-06 20:11:00,88.6,77.4,29.93,North,359,0.0,9.8,70,0.00,,SKC,0.00,VWS V14.01,2013-08-07 00:11:00,
2013-08-06 20:12:00,88.6,77.6,29.93,North,359,0.0,9.8,70,0.00,,SKC,0.00,VWS V14.01,2013-08-07 00:12:00,
2013-08-06 20:13:00,88.6,77.5,29.93,North,359,0.0,9.8,70,0.00,,SKC,0.00,VWS V14.01,2013-08-07 00:13:00,
2013-08-06 20:14:00,88.7,77.7,29.93,North,359,0.0,9.8,70,0.00,,SKC,0.00,VWS V14.01,2013-08-07 00:14:00,
2013-08-06 20:16:00,88.6,77.5,29.93,North,359,0.0,9.8,70,0.00,,SKC,0.00,VWS V14.01,2013-08-07 00:16:00,
2013-08-06 20:17:00,88.6,77.8,29.93,North,359,0.0,9.8,70,0.00,,SKC,0.00,VWS V14.01,2013-08-07 00:17:00,
2013-08-06 20:18:00,88.7,78.1,29.93,North,359,0.0,9.8,71,0.00,,SKC,0.00,VWS V14.01,2013-08-07 00:18:00,
2013-08-06 20:19:00,88.7,78.2,29.93,North,359,0.0,9.8,71,0.00,,SKC,0.00,VWS V14.01,2013-08-07 00:19:00,
2013-08-06 20:21:00,88.6,77.9,29.92,North,359,0.0,9.8,71,0.00,,SKC,0.00,VWS V14.01,2013-08-07 00:21:00,
2013-08-06 20:22:00,88.5,77.8,29.92,North,359,0.0,9.8,71,0.00,,SKC,0.00,VWS V14.01,2013-08-07 00:22:00,
2013-08-06 20:23:00,88.5,78.1,29.92,North,359,0.0,9.8,72,0.00,,SKC,0.00,VWS V14.01,2013-08-07 00:23:00,
2013-08-06 20:24:00,88.5,78.2,29.92,North,359,0.0,9.8,72,0.00,,SKC,0.00,VWS V14.01,2013-08-07 00:24:00,
2013-08-06 20:26:00,88.4,78.5,29.92,North,359,0.0,9.8,73,0.00,,SKC,0.00,VWS V14.01,2013-08-07 00:26:00,
2013-08-06 20:27:00,88.5,78.7,29.92,North,359,0.0,9.8,73,0.00,,SKC,0.00,VWS V14.01,2013-08-07 00:27:00,
2013-08-06 20:29:00,88.4,78.7,29.92,North,359,0.0,9.8,73,0.00,,SKC,0.00,VWS V14.01,2013-08-07 00:29:00,
2013-08-06 20:31:00,88.2,78.2,29.92,North,359,0.0,9.8,72,0.00,,SKC,0.00,VWS V14.01,2013-08-07 00:31:00,
2013-08-06 20:32:00,88.3,78.3,29.92,North,359,0.0,9.8,72,0.00,,SKC,0.00,VWS V14.01,2013-08-07 00:32:00,
2013-08-06 20:34:00,88.3,78.7,29.93,North,359,0.0,9.8,73,0.00,,SKC,0.00,VWS V14.01,2013-08-07 00:34:00,
2013-08-06 20:36:00,88.2,78.9,29.93,North,359,0.0,9.8,74,0.00,,SKC,0.00,VWS V14.01,2013-08-07 00:36:00,
2013-08-06 20:37:00,88.2,79.0,29.93,North,359,0.0,9.8,74,0.00,,SKC,0.00,VWS V14.01,2013-08-07 00:37:00,
2013-08-06 20:39:00,88.1,79.3,29.93,North,359,0.0,9.8,75,0.00,,SKC,0.00,VWS V14.01,2013-08-07 00:39:00,
2013-08-06 20:40:00,88.1,79.4,29.93,North,359,0.0,9.8,76,0.00,,SKC,0.00,VWS V14.01,2013-08-07 00:40:00,
2013-08-06 20:42:00,88.1,79.3,29.93,North,359,0.0,9.8,75,0.00,,SKC,0.00,VWS V14.01,2013-08-07 00:42:00,
2013-08-06 20:44:00,88.0,79.3,29.92,North,359,0.0,9.8,76,0.00,,SKC,0.00,VWS V14.01,2013-08-07 00:44:00,
2013-08-06 20:45:00,88.0,78.8,29.92,North,359,0.0,9.8,74,0.00,,SKC,0.00,VWS V14.01,2013-08-07 00:45:00,
2013-08-06 20:47:00,87.9,78.4,29.93,North,359,0.0,9.8,74,0.00,,SKC,0.00,VWS V14.01,2013-08-07 00:47:00,
2013-08-06 20:49:00,87.9,78.2,29.93,North,359,0.0,9.8,73,0.00,,SKC,0.00,VWS V14.01,2013-08-07 00:49:00,
2013-08-06 20:50:00,88.0,78.3,29.93,North,359,0.0,9.8,73,0.00,,SKC,0.00,VWS V14.01,2013-08-07 00:50:00,
2013-08-06 20:52:00,88.0,78.3,29.93,North,359,0.0,9.8,73,0.00,,SKC,0.00,VWS V14.01,2013-08-07 00:52:00,
2013-08-06 20:53:00,87.9,78.3,29.93,North,359,0.0,9.8,73,0.00,,SKC,0.00,VWS V14.01,2013-08-07 00:53:00,
2013-08-06 20:54:00,87.9,78.3,29.93,North,359,0.0,9.8,73,0.00,,SKC,0.00,VWS V14.01,2013-08-07 00:54:00,
2013-08-06 20:55:00,87.8,78.2,29.93,North,359,0.0,9.8,73,0.00,,SKC,0.00,VWS V14.01,2013-08-07 00:55:00,
2013-08-06 20:57:00,87.9,78.0,29.92,North,359,0.0,9.8,73,0.00,,SKC,0.00,VWS V14.01,2013-08-07 00:57:00,
2013-08-06 20:58:00,87.8,77.7,29.92,North,359,0.0,9.8,72,0.00,,SKC,0.00,VWS V14.01,2013-08-07 00:58:00,
2013-08-06 20:59:00,87.8,77.5,29.92,North,359,0.0,9.8,72,0.00,,SKC,0.00,VWS V14.01,2013-08-07 00:59:00,
2013-08-06 21:01:00,87.9,77.3,29.92,North,359,0.0,9.8,71,0.00,,SKC,0.00,VWS V14.01,2013-08-07 01:01:00,
2013-08-06 21:02:00,87.7,76.1,29.92,North,359,0.0,9.8,68,0.00,,SKC,0.00,VWS V14.01,2013-08-07 01:02:00,
2013-08-06 21:03:00,87.8,76.2,29.92,North,359,0.0,9.8,69,0.00,,SKC,0.00,VWS V14.01,2013-08-07 01:03:00,
2013-08-06 21:04:00,87.8,76.4,29.92,North,359,0.0,9.8,69,0.00,,SKC,0.00,VWS V14.01,2013-08-07 01:04:00,
2013-08-06 21:06:00,87.8,76.2,29.92,North,359,0.0,9.8,69,0.00,,SKC,0.00,VWS V14.01,2013-08-07 01:06:00,
2013-08-06 21:07:00,87.8,76.5,29.93,North,359,0.0,9.8,69,0.00,,SKC,0.00,VWS V14.01,2013-08-07 01:07:00,
2013-08-06 21:08:00,87.9,76.6,29.93,North,359,0.0,9.8,69,0.00,,SKC,0.00,VWS V14.01,2013-08-07 01:08:00,
2013-08-06 21:09:00,87.9,76.5,29.92,North,359,0.0,9.8,69,0.00,,SKC,0.00,VWS V14.01,2013-08-07 01:09:00,
2013-08-06 21:11:00,87.9,76.4,29.93,North,359,0.0,9.8,69,0.00,,SKC,0.00,VWS V14.01,2013-08-07 01:11:00,
2013-08-06 21:12:00,87.9,76.4,29.93,North,359,0.0,9.8,69,0.00,,SKC,0.00,VWS V14.01,2013-08-07 01:12:00,
2013-08-06 21:13:00,87.9,76.4,29.93,North,359,0.0,9.8,69,0.00,,SKC,0.00,VWS V14.01,2013-08-07 01:13:00,
2013-08-06 21:15:00,87.9,75.9,29.93,North,359,0.0,9.8,68,0.00,,SKC,0.00,VWS V14.01,2013-08-07 01:15:00,
2013-08-06 21:16:00,87.8,75.8,29.93,North,359,0.0,9.8,68,0.00,,SKC,0.00,VWS V14.01,2013-08-07 01:16:00,
2013-08-06 21:17:00,87.9,75.9,29.93,North,359,0.0,9.8,68,0.00,,SKC,0.00,VWS V14.01,2013-08-07 01:17:00,
2013-08-06 21:18:00,87.9,75.9,29.93,North,359,0.0,9.8,68,0.00,,SKC,0.00,VWS V14.01,2013-08-07 01:18:00,
2013-08-06 21:20:00,87.8,75.9,29.93,North,359,0.0,9.8,68,0.00,,SKC,0.00,VWS V14.01,2013-08-07 01:20:00,
2013-08-06 21:21:00,87.9,75.7,29.93,North,359,0.0,9.8,67,0.00,,SKC,0.00,VWS V14.01,2013-08-07 01:21:00,
2013-08-06 21:23:00,87.9,75.9,29.93,North,359,0.0,9.8,68,0.00,,SKC,0.00,VWS V14.01,2013-08-07 01:23:00,
2013-08-06 21:25:00,87.9,76.1,29.93,North,359,0.0,9.8,68,0.00,,SKC,0.00,VWS V14.01,2013-08-07 01:25:00,
2013-08-06 21:26:00,87.9,76.2,29.93,North,359,0.0,9.8,68,0.00,,SKC,0.00,VWS V14.01,2013-08-07 01:26:00,
2013-08-06 21:28:00,87.9,76.3,29.93,North,359,0.0,9.8,69,0.00,,SKC,0.00,VWS V14.01,2013-08-07 01:28:00,
2013-08-06 21:30:00,87.8,76.2,29.93,North,359,0.0,9.8,69,0.00,,SKC,0.00,VWS V14.01,2013-08-07 01:30:00,
2013-08-06 21:32:00,87.9,76.3,29.93,North,359,0.0,9.8,69,0.00,,SKC,0.00,VWS V14.01,2013-08-07 01:32:00,
2013-08-06 21:33:00,87.8,76.3,29.93,North,359,0.0,9.8,69,0.00,,SKC,0.00,VWS V14.01,2013-08-07 01:33:00,
2013-08-06 21:35:00,87.7,75.8,29.93,North,359,0.0,9.8,68,0.00,,SKC,0.00,VWS V14.01,2013-08-07 01:35:00,
2013-08-06 21:37:00,87.8,75.9,29.93,North,359,0.0,9.8,68,0.00,,SKC,0.00,VWS V14.01,2013-08-07 01:37:00,
2013-08-06 21:38:00,87.8,76.1,29.93,North,359,0.0,9.8,68,0.00,,SKC,0.00,VWS V14.01,2013-08-07 01:38:00,
2013-08-06 21:40:00,87.8,76.5,29.94,North,359,0.0,9.8,69,0.00,,SKC,0.00,VWS V14.01,2013-08-07 01:40:00,
2013-08-06 21:42:00,87.9,76.6,29.94,North,359,0.0,9.8,69,0.00,,SKC,0.00,VWS V14.01,2013-08-07 01:42:00,
2013-08-06 21:43:00,87.8,76.5,29.94,North,359,0.0,9.8,69,0.00,,SKC,0.00,VWS V14.01,2013-08-07 01:43:00,
2013-08-06 21:45:00,87.8,76.8,29.95,North,359,0.0,9.8,70,0.00,,SKC,0.00,VWS V14.01,2013-08-07 01:45:00,
2013-08-06 21:47:00,87.9,77.0,29.95,North,359,0.0,9.8,70,0.00,,SKC,0.00,VWS V14.01,2013-08-07 01:47:00,
2013-08-06 21:48:00,87.9,77.2,29.95,North,359,0.0,9.8,71,0.00,,SKC,0.00,VWS V14.01,2013-08-07 01:48:00,
2013-08-06 21:50:00,87.8,77.5,29.94,North,359,0.0,9.8,72,0.00,,SKC,0.00,VWS V14.01,2013-08-07 01:50:00,
2013-08-06 21:52:00,87.7,77.8,29.94,North,359,0.0,9.8,73,0.00,,SKC,0.00,VWS V14.01,2013-08-07 01:52:00,
2013-08-06 21:53:00,87.7,78.1,29.94,North,359,0.0,9.8,74,0.00,,SKC,0.00,VWS V14.01,2013-08-07 01:53:00,
2013-08-06 21:54:00,87.7,78.3,29.94,North,359,0.0,9.8,74,0.00,,SKC,0.00,VWS V14.01,2013-08-07 01:54:00,
2013-08-06 21:56:00,87.6,78.4,29.94,North,359,0.0,9.8,74,0.00,,SKC,0.00,VWS V14.01,2013-08-07 01:56:00,
2013-08-06 21:57:00,87.6,78.2,29.94,North,359,0.0,9.8,74,0.00,,SKC,0.00,VWS V14.01,2013-08-07 01:57:00,
2013-08-06 21:58:00,87.6,78.2,29.94,North,359,0.0,9.8,74,0.00,,SKC,0.00,VWS V14.01,2013-08-07 01:58:00,
2013-08-06 21:59:00,87.6,78.2,29.94,North,359,0.0,9.8,74,0.00,,SKC,0.00,VWS V14.01,2013-08-07 01:59:00,
2013-08-06 22:01:00,87.6,78.4,29.94,North,359,0.0,9.8,74,0.00,,SKC,0.00,VWS V14.01,2013-08-07 02:01:00,
2013-08-06 22:02:00,87.6,78.4,29.94,North,359,0.0,9.8,74,0.00,,SKC,0.00,VWS V14.01,2013-08-07 02:02:00,
2013-08-06 22:03:00,87.6,78.6,29.94,North,359,0.0,9.8,75,0.00,,SKC,0.00,VWS V14.01,2013-08-07 02:03:00,
2013-08-06 22:04:00,87.6,78.6,29.94,North,359,0.0,9.8,75,0.00,,SKC,0.00,VWS V14.01,2013-08-07 02:04:00,
2013-08-06 22:06:00,87.6,82.0,29.94,North,359,0.0,9.8,84,0.00,,SKC,0.00,VWS V14.01,2013-08-07 02:06:00,
2013-08-06 22:07:00,87.5,81.9,29.94,North,359,0.0,9.8,84,0.00,,SKC,0.00,VWS V14.01,2013-08-07 02:07:00,
2013-08-06 22:08:00,87.5,82.5,29.94,North,359,0.0,9.8,85,0.00,,SKC,0.00,VWS V14.01,2013-08-07 02:08:00,
2013-08-06 22:09:00,87.5,82.5,29.94,North,359,0.0,9.8,85,0.00,,SKC,0.00,VWS V14.01,2013-08-07 02:09:00,
2013-08-06 22:12:00,87.4,83.6,29.94,North,359,0.0,9.8,88,0.00,,SKC,0.00,VWS V14.01,2013-08-07 02:12:00,
2013-08-06 22:14:00,87.2,84.1,29.95,North,359,0.0,9.8,90,0.00,,SKC,0.00,VWS V14.01,2013-08-07 02:14:00,
2013-08-06 22:15:00,87.2,83.9,29.95,North,359,0.0,9.8,90,0.00,,SKC,0.00,VWS V14.01,2013-08-07 02:15:00,
2013-08-06 22:17:00,87.1,83.2,29.95,North,359,0.0,9.8,88,0.00,,SKC,0.00,VWS V14.01,2013-08-07 02:17:00,
2013-08-06 22:19:00,87.0,82.2,29.95,North,359,0.0,9.8,86,0.00,,SKC,0.00,VWS V14.01,2013-08-07 02:19:00,
2013-08-06 22:20:00,87.0,82.1,29.95,North,359,0.0,9.8,86,0.00,,SKC,0.00,VWS V14.01,2013-08-07 02:20:00,
2013-08-06 22:22:00,86.9,83.6,29.96,North,359,0.0,9.8,90,0.00,,SKC,0.00,VWS V14.01,2013-08-07 02:22:00,
2013-08-06 22:24:00,86.8,84.0,29.96,North,359,0.0,9.8,91,0.00,,SKC,0.00,VWS V14.01,2013-08-07 02:24:00,
2013-08-06 22:25:00,86.7,84.1,29.96,North,359,0.0,9.8,92,0.00,,SKC,0.00,VWS V14.01,2013-08-07 02:25:00,
2013-08-06 22:27:00,86.6,84.2,29.96,North,359,0.0,9.8,93,0.00,,SKC,0.00,VWS V14.01,2013-08-07 02:27:00,
2013-08-06 22:28:00,86.5,84.2,29.96,North,359,0.0,9.8,93,0.00,,SKC,0.00,VWS V14.01,2013-08-07 02:28:00,
2013-08-06 22:29:00,86.5,84.1,29.96,North,359,0.0,9.8,92,0.00,,SKC,0.00,VWS V14.01,2013-08-07 02:29:00,
2013-08-06 22:30:00,86.5,84.1,29.96,North,359,0.0,9.8,93,0.00,,SKC,0.00,VWS V14.01,2013-08-07 02:30:00,
2013-08-06 22:32:00,86.4,84.3,29.97,North,359,0.0,9.8,94,0.00,,SKC,0.00,VWS V14.01,2013-08-07 02:32:00,
2013-08-06 22:33:00,86.4,84.4,29.97,North,359,0.0,9.8,94,0.00,,SKC,0.00,VWS V14.01,2013-08-07 02:33:00,
2013-08-06 22:34:00,86.3,84.5,29.97,North,359,0.0,9.8,94,0.00,,SKC,0.00,VWS V14.01,2013-08-07 02:34:00,
2013-08-06 22:35:00,86.3,84.6,29.97,North,359,0.0,9.8,95,0.00,,SKC,0.00,VWS V14.01,2013-08-07 02:35:00,
2013-08-06 22:37:00,86.2,84.4,29.96,North,359,0.0,9.8,94,0.00,,SKC,0.00,VWS V14.01,2013-08-07 02:37:00,
2013-08-06 22:38:00,86.1,84.2,29.96,North,359,0.0,9.8,94,0.00,,SKC,0.00,VWS V14.01,2013-08-07 02:38:00,
2013-08-06 22:39:00,86.2,84.2,29.96,North,359,0.0,9.8,94,0.00,,SKC,0.00,VWS V14.01,2013-08-07 02:39:00,
2013-08-06 22:40:00,86.1,84.1,29.96,North,359,0.0,9.8,94,0.00,,SKC,0.00,VWS V14.01,2013-08-07 02:40:00,
2013-08-06 22:42:00,86.1,84.1,29.96,North,359,0.0,9.8,94,0.00,,SKC,0.00,VWS V14.01,2013-08-07 02:42:00,
2013-08-06 22:43:00,86.1,84.0,29.97,North,359,0.0,9.8,94,0.00,,SKC,0.00,VWS V14.01,2013-08-07 02:43:00,
2013-08-06 22:45:00,86.0,84.0,29.97,North,359,0.0,9.8,94,0.00,,SKC,0.00,VWS V14.01,2013-08-07 02:45:00,
2013-08-06 22:48:00,86.0,84.2,29.97,North,359,0.0,9.8,94,0.00,,SKC,0.00,VWS V14.01,2013-08-07 02:48:00,
2013-08-06 22:50:00,86.0,84.6,29.97,North,359,0.0,9.8,96,0.00,,SKC,0.00,VWS V14.01,2013-08-07 02:50:00,
2013-08-06 22:51:00,86.0,84.6,29.97,North,359,0.0,9.8,96,0.00,,SKC,0.00,VWS V14.01,2013-08-07 02:51:00,
2013-08-06 22:53:00,86.0,84.8,29.97,North,359,0.0,9.8,96,0.00,,SKC,0.00,VWS V14.01,2013-08-07 02:53:00,
2013-08-06 22:55:00,85.9,84.8,29.97,North,359,0.0,9.8,97,0.00,,SKC,0.00,VWS V14.01,2013-08-07 02:55:00,
2013-08-06 22:56:00,85.9,84.9,29.96,North,359,0.0,9.8,97,0.00,,SKC,0.00,VWS V14.01,2013-08-07 02:56:00,
2013-08-06 22:58:00,85.7,84.8,29.97,North,359,0.0,9.8,97,0.00,,SKC,0.00,VWS V14.01,2013-08-07 02:58:00,
2013-08-06 23:00:00,85.6,84.7,29.97,North,359,0.0,9.8,97,0.00,,SKC,0.00,VWS V14.01,2013-08-07 03:00:00,
2013-08-06 23:01:00,85.6,84.6,29.97,North,359,0.0,9.8,97,0.00,,SKC,0.00,VWS V14.01,2013-08-07 03:01:00,
2013-08-06 23:03:00,85.5,84.5,29.97,North,359,0.0,9.8,97,0.00,,SKC,0.00,VWS V14.01,2013-08-07 03:03:00,
2013-08-06 23:04:00,85.5,84.6,29.97,North,359,0.0,9.8,97,0.00,,SKC,0.00,VWS V14.01,2013-08-07 03:04:00,
2013-08-06 23:05:00,85.5,84.5,29.97,North,359,0.0,9.8,97,0.00,,SKC,0.00,VWS V14.01,2013-08-07 03:05:00,
2013-08-06 23:06:00,83.8,82.6,30.00,North,359,0.8,12.2,96,0.00,,SKC,0.00,VWS V14.01,2013-08-07 03:06:00,
2013-08-06 23:07:00,85.5,84.6,29.97,North,359,0.0,9.8,97,0.00,,SKC,0.00,VWS V14.01,2013-08-07 03:07:00,
2013-08-06 23:08:00,85.5,84.6,29.97,North,359,0.0,9.8,97,0.00,,SKC,0.00,VWS V14.01,2013-08-07 03:08:00,
2013-08-06 23:09:00,85.5,84.6,29.97,North,359,0.0,9.8,97,0.00,,SKC,0.00,VWS V14.01,2013-08-07 03:09:00,
2013-08-06 23:10:00,85.5,84.6,29.97,North,359,0.0,9.8,97,0.00,,SKC,0.00,VWS V14.01,2013-08-07 03:10:00,
2013-08-06 23:11:00,81.1,80.2,30.00,North,359,0.0,12.2,97,0.00,,SKC,0.00,VWS V14.01,2013-08-07 03:11:00,
2013-08-06 23:12:00,85.6,84.7,29.97,North,359,0.0,9.8,97,0.00,,SKC,0.00,VWS V14.01,2013-08-07 03:12:00,
2013-08-06 23:14:00,85.5,84.6,29.97,North,359,0.0,9.8,97,0.00,,SKC,0.00,VWS V14.01,2013-08-07 03:14:00,
2013-08-06 23:15:00,85.5,84.6,29.97,North,359,0.0,9.8,97,0.00,,SKC,0.00,VWS V14.01,2013-08-07 03:15:00,
2013-08-06 23:17:00,85.5,84.6,29.98,North,359,0.0,9.8,97,0.00,,SKC,0.00,VWS V14.01,2013-08-07 03:17:00,
2013-08-06 23:19:00,85.6,84.7,29.98,North,359,0.0,9.8,97,0.00,,SKC,0.00,VWS V14.01,2013-08-07 03:19:00,
2013-08-06 23:20:00,85.5,84.6,29.98,North,359,0.0,9.8,97,0.00,,SKC,0.00,VWS V14.01,2013-08-07 03:20:00,
2013-08-06 23:21:00,85.5,84.7,29.98,North,359,0.0,9.8,97,0.00,,SKC,0.00,VWS V14.01,2013-08-07 03:21:00,
2013-08-06 23:22:00,85.6,84.8,29.98,North,359,0.0,9.8,98,0.00,,SKC,0.00,VWS V14.01,2013-08-07 03:22:00,
2013-08-06 23:24:00,85.6,84.8,29.98,North,359,0.0,9.8,98,0.00,,SKC,0.00,VWS V14.01,2013-08-07 03:24:00,
2013-08-06 23:26:00,85.5,84.7,29.98,North,359,0.0,9.8,98,0.00,,SKC,0.00,VWS V14.01,2013-08-07 03:26:00,
2013-08-06 23:28:00,85.5,84.8,29.98,North,359,0.0,9.8,98,0.00,,SKC,0.00,VWS V14.01,2013-08-07 03:28:00,
2013-08-06 23:29:00,85.5,84.8,29.98,North,359,0.0,9.8,98,0.00,,SKC,0.00,VWS V14.01,2013-08-07 03:29:00,
2013-08-06 23:31:00,85.5,84.8,29.98,North,359,0.0,9.8,98,0.00,,SKC,0.00,VWS V14.01,2013-08-07 03:31:00,
2013-08-06 23:33:00,85.5,84.8,29.98,North,359,0.0,9.8,98,0.00,,SKC,0.00,VWS V14.01,2013-08-07 03:33:00,
2013-08-06 23:34:00,85.5,84.8,29.97,North,359,0.0,9.8,98,0.00,,SKC,0.00,VWS V14.01,2013-08-07 03:34:00,
2013-08-06 23:35:00,85.4,84.7,29.97,North,359,0.0,9.8,98,0.00,,SKC,0.00,VWS V14.01,2013-08-07 03:35:00,
2013-08-06 23:36:00,85.5,84.8,29.97,North,359,0.0,9.8,98,0.00,,SKC,0.00,VWS V14.01,2013-08-07 03:36:00,
2013-08-06 23:38:00,85.5,84.8,29.98,North,359,0.0,9.8,98,0.00,,SKC,0.00,VWS V14.01,2013-08-07 03:38:00,
2013-08-06 23:39:00,85.5,84.9,29.97,North,359,0.0,9.8,98,0.00,,SKC,0.00,VWS V14.01,2013-08-07 03:39:00,
2013-08-06 23:40:00,85.4,84.8,29.97,North,359,0.0,9.8,98,0.00,,SKC,0.00,VWS V14.01,2013-08-07 03:40:00,
2013-08-06 23:41:00,85.5,84.8,29.97,North,359,0.0,9.8,98,0.00,,SKC,0.00,VWS V14.01,2013-08-07 03:41:00,
2013-08-06 23:43:00,85.5,85.0,29.97,North,359,0.0,9.8,98,0.00,,SKC,0.00,VWS V14.01,2013-08-07 03:43:00,
2013-08-06 23:44:00,85.4,85.0,29.97,North,359,0.0,9.8,99,0.00,,SKC,0.00,VWS V14.01,2013-08-07 03:44:00,
2013-08-06 23:45:00,85.4,85.1,29.98,North,359,0.0,9.8,99,0.00,,SKC,0.00,VWS V14.01,2013-08-07 03:45:00,
2013-08-06 23:46:00,85.3,85.0,29.98,North,359,0.0,9.8,99,0.00,,SKC,0.00,VWS V14.01,2013-08-07 03:46:00,
2013-08-06 23:47:00,85.3,85.0,29.98,North,359,0.0,9.8,99,0.00,,SKC,0.00,VWS V14.01,2013-08-07 03:47:00,
2013-08-06 23:48:00,85.3,85.0,29.98,North,359,0.0,9.8,99,0.00,,SKC,0.00,VWS V14.01,2013-08-07 03:48:00,
2013-08-06 23:49:00,85.3,85.0,29.98,North,359,0.0,9.8,99,0.00,,SKC,0.00,VWS V14.01,2013-08-07 03:49:00,
2013-08-06 23:50:00,85.3,85.0,29.98,North,359,0.0,9.8,99,0.00,,SKC,0.00,VWS V14.01,2013-08-07 03:50:00,
2013-08-06 23:52:00,85.2,84.8,29.98,North,359,0.0,9.8,99,0.00,,SKC,0.00,VWS V14.01,2013-08-07 03:52:00,
2013-08-06 23:53:00,85.2,84.7,29.98,North,359,0.0,9.8,98,0.00,,SKC,0.00,VWS V14.01,2013-08-07 03:53:00,
2013-08-06 23:54:00,85.2,84.7,29.98,North,359,0.0,9.8,98,0.00,,SKC,0.00,VWS V14.01,2013-08-07 03:54:00,
2013-08-06 23:55:00,85.1,84.5,29.99,North,359,0.0,9.8,98,0.00,,SKC,0.00,VWS V14.01,2013-08-07 03:55:00,
2013-08-06 23:57:00,85.3,84.7,29.99,North,359,0.0,9.8,98,0.00,,SKC,0.00,VWS V14.01,2013-08-07 03:57:00,
2013-08-06 23:58:00,85.0,84.1,30.00,North,359,0.7,12.2,98,0.00,,SKC,0.00,VWS V14.01,2013-08-07 03:58:00,